EW6460 Weather Reports


Display with metric or nautical units.
time (UTC)temp
F
wind
direction
speed
MPH
gust
MPH
rain 1hr
in
rain 24hr
in
rain mn
in
humidity
%
barometer
mb
20190324192739 76 188 3.0 7.0 0.00 0.00 0.00 68 1017.9
20190324192651 76 141 3.0 8.0 0.00 0.00 0.00 68 1017.9
20190324192544 76 141 4.0 8.0 0.00 0.00 0.00 68 1017.9
20190324192451 76 210 4.0 8.0 0.00 0.00 0.00 68 1017.9
20190324192343 75 217 2.0 8.0 0.00 0.00 0.00 70 1018.0
20190324192239 75 178 2.0 8.0 0.00 0.00 0.00 70 1017.9
20190324192152 75 155 2.0 8.0 0.00 0.00 0.00 70 1017.9
20190324192044 75 183 4.0 8.0 0.00 0.00 0.00 70 1018.0
20190324191951 75 141 4.0 8.0 0.00 0.00 0.00 71 1018.1
20190324191844 75 127 2.0 7.0 0.00 0.00 0.00 71 1017.9
20190324191756 74 163 2.0 7.0 0.00 0.00 0.00 71 1017.9
20190324191650 74 139 3.0 9.0 0.00 0.00 0.00 70 1018.1
20190324191542 74 114 3.0 9.0 0.00 0.00 0.00 70 1018.1
20190324191453 74 169 3.0 9.0 0.00 0.00 0.00 71 1018.1
20190324191345 74 170 3.0 9.0 0.00 0.00 0.00 71 1018.1
20190324191257 74 172 4.0 9.0 0.00 0.00 0.00 71 1018.1
20190324191149 74 203 4.0 9.0 0.00 0.00 0.00 71 1018.1
20190324191041 74 176 4.0 9.0 0.00 0.00 0.00 71 1018.2
20190324190949 74 153 4.0 9.0 0.00 0.00 0.00 71 1018.2
20190324190841 74 160 4.0 9.0 0.00 0.00 0.00 70 1018.3
20190324190753 74 165 4.0 9.0 0.00 0.00 0.00 70 1018.3
20190324190651 74 159 4.0 9.0 0.00 0.00 0.00 69 1018.2
20190324190540 74 134 4.0 9.0 0.00 0.00 0.00 70 1018.3
20190324190447 75 166 4.0 9.0 0.00 0.00 0.00 70 1018.3
20190324190339 75 133 4.0 9.0 0.00 0.00 0.00 70 1018.3
20190324190251 75 157 4.0 9.0 0.00 0.00 0.00 69 1018.3
20190324190143 75 146 4.0 9.0 0.00 0.00 0.00 70 1018.3
20190324190055 75 149 3.0 9.0 0.00 0.00 0.00 71 1018.3
20190324190013 75 151 2.0 6.0 0.00 0.00 0.00 71 1018.4
20190324185845 74 158 1.0 6.0 0.00 0.00 0.00 71 1018.3
20190324185741 74 160 2.0 7.0 0.00 0.00 0.00 71 1018.4
20190324185653 74 178 2.0 8.0 0.00 0.00 0.00 71 1018.4
20190324185545 74 217 2.0 8.0 0.00 0.00 0.00 71 1018.4
20190324185452 74 157 3.0 8.0 0.00 0.00 0.00 70 1018.5
20190324185346 74 219 3.0 8.0 0.00 0.00 0.00 71 1018.5
20190324185258 74 211 3.0 8.0 0.00 0.00 0.00 71 1018.5
20190324185152 74 146 3.0 8.0 0.00 0.00 0.00 70 1018.5
20190324185043 74 181 4.0 8.0 0.00 0.00 0.00 71 1018.5
20190324184953 74 191 4.0 8.0 0.00 0.00 0.00 71 1018.5
20190324184846 74 153 4.0 7.0 0.00 0.00 0.00 71 1018.5
20190324184757 74 131 3.0 7.0 0.00 0.00 0.00 72 1018.5
20190324184650 74 181 3.0 8.0 0.00 0.00 0.00 72 1018.5
20190324184543 74 162 3.0 8.0 0.00 0.00 0.00 72 1018.5
20190324184450 74 162 3.0 8.0 0.00 0.00 0.00 73 1018.5
20190324184343 74 162 3.0 8.0 0.00 0.00 0.00 72 1018.6
20190324184255 74 136 4.0 8.0 0.00 0.00 0.00 72 1018.6
20190324184151 74 138 4.0 8.0 0.00 0.00 0.00 72 1018.6
20190324184043 74 169 4.0 8.0 0.00 0.00 0.00 71 1018.6
20190324183950 74 184 4.0 8.0 0.00 0.00 0.00 71 1018.6
20190324183843 74 129 4.0 8.0 0.00 0.00 0.00 71 1018.6
20190324183755 74 177 4.0 7.0 0.00 0.00 0.00 71 1018.6
20190324183649 74 148 4.0 7.0 0.00 0.00 0.00 71 1018.6
20190324183540 74 224 4.0 7.0 0.00 0.00 0.00 71 1018.6
20190324183446 74 157 4.0 7.0 0.00 0.00 0.00 71 1018.6
20190324183343 74 158 3.0 7.0 0.00 0.00 0.00 73 1018.6
20190324183255 74 162 2.0 7.0 0.00 0.00 0.00 74 1018.6
20190324183147 73 230 2.0 7.0 0.00 0.00 0.00 74 1018.6
20190324183038 73 160 2.0 7.0 0.00 0.00 0.00 74 1018.7
20190324182946 73 146 3.0 7.0 0.00 0.00 0.00 73 1018.7
20190324182858 73 187 3.0 7.0 0.00 0.00 0.00 73 1018.6
20190324182750 73 219 2.0 7.0 0.00 0.00 0.00 73 1018.7
20190324182642 73 165 4.0 7.0 0.00 0.00 0.00 72 1018.8
20190324182538 73 222 5.0 7.0 0.00 0.00 0.00 72 1018.8
20190324182445 73 162 3.0 7.0 0.00 0.00 0.00 72 1018.8
20190324182357 73 133 3.0 7.0 0.00 0.00 0.00 73 1018.8
20190324182252 73 229 3.0 7.0 0.00 0.00 0.00 73 1018.7
20190324182142 73 189 3.0 7.0 0.00 0.00 0.00 73 1018.8
20190324182053 73 147 3.0 8.0 0.00 0.00 0.00 73 1018.8
20190324181940 73 251 4.0 8.0 0.00 0.00 0.00 73 1018.8
20190324181852 73 165 4.0 8.0 0.00 0.00 0.00 73 1018.8
20190324181745 73 115 4.0 8.0 0.00 0.00 0.00 73 1018.8
20190324181641 73 110 5.0 8.0 0.00 0.00 0.00 73 1018.8
20190324181553 73 174 5.0 8.0 0.00 0.00 0.00 74 1018.8
20190324181441 72 170 4.0 8.0 0.00 0.00 0.00 74 1018.8
20190324181352 72 158 3.0 8.0 0.00 0.00 0.00 75 1018.8
20190324181245 72 255 4.0 8.0 0.00 0.00 0.00 76 1018.8
20190324181157 72 201 5.0 8.0 0.00 0.00 0.00 75 1018.8
20190324181050 71 205 4.0 7.0 0.00 0.00 0.00 76 1018.8
20190324180954 71 152 3.0 7.0 0.00 0.00 0.00 77 1018.9
20190324180850 71 252 3.0 9.0 0.00 0.00 0.00 77 1018.9
20190324180742 71 164 2.0 9.0 0.00 0.00 0.00 77 1018.9
20190324180656 71 166 2.0 9.0 0.00 0.00 0.00 78 1018.9
20190324180547 71 229 2.0 9.0 0.00 0.00 0.00 78 1018.9
20190324180454 71 189 2.0 9.0 0.00 0.00 0.00 77 1019.0
20190324180346 71 221 3.0 9.0 0.00 0.00 0.00 77 1018.9
20190324180240 71 247 5.0 9.0 0.00 0.00 0.00 77 1019.0
20190324180152 71 203 5.0 9.0 0.00 0.00 0.00 77 1019.0
20190324180048 71 147 5.0 9.0 0.00 0.00 0.00 77 1018.9
20190324180009 71 148 5.0 12.0 0.00 0.00 0.00 77 1018.9
20190324175838 71 155 4.0 12.0 0.00 0.00 0.00 77 1019.0
20190324175753 71 158 4.0 12.0 0.00 0.00 0.00 77 1019.0
20190324175646 71 180 4.0 12.0 0.00 0.00 0.00 77 1019.0
20190324175557 71 151 4.0 12.0 0.00 0.00 0.00 77 1019.0
20190324175445 71 160 4.0 12.0 0.00 0.00 0.00 77 1019.0
20190324175357 71 159 4.0 12.0 0.00 0.00 0.00 77 1019.0
20190324175250 71 186 4.0 12.0 0.00 0.00 0.00 77 1019.0
20190324175148 71 162 4.0 12.0 0.00 0.00 0.00 77 1018.9
20190324175057 71 136 3.0 6.0 0.00 0.00 0.00 77 1019.0
20190324174945 71 171 2.0 6.0 0.00 0.00 0.00 78 1019.0
20190324174857 71 132 3.0 6.0 0.00 0.00 0.00 78 1019.0
20190324174750 71 152 4.0 6.0 0.00 0.00 0.00 77 1019.0
20190324174644 71 131 3.0 6.0 0.00 0.00 0.00 78 1019.0
20190324174556 71 133 3.0 6.0 0.00 0.00 0.00 79 1019.1
20190324174442 71 136 3.0 7.0 0.00 0.00 0.00 79 1019.1
20190324174338 71 188 4.0 8.0 0.00 0.00 0.00 78 1019.1
20190324174251 70 169 3.0 8.0 0.00 0.00 0.00 79 1019.1
20190324174143 70 233 3.0 8.0 0.00 0.00 0.00 79 1019.2
20190324174055 70 153 4.0 8.0 0.00 0.00 0.00 79 1019.2
20190324173944 70 213 3.0 9.0 0.00 0.00 0.00 79 1019.2
20190324173855 70 177 3.0 9.0 0.00 0.00 0.00 79 1019.2
20190324173749 70 250 3.0 9.0 0.00 0.00 0.00 79 1019.2
20190324173640 70 160 3.0 10.0 0.00 0.00 0.00 80 1019.2
20190324173556 70 213 4.0 10.0 0.00 0.00 0.00 80 1019.2
20190324173443 70 121 4.0 10.0 0.00 0.00 0.00 79 1019.2
20190324173355 70 148 4.0 10.0 0.00 0.00 0.00 79 1019.2
20190324173248 70 155 5.0 10.0 0.00 0.00 0.00 79 1019.2
20190324173140 70 146 5.0 10.0 0.00 0.00 0.00 79 1019.2
20190324173052 70 160 5.0 10.0 0.00 0.00 0.00 79 1019.2
20190324172939 70 232 5.0 10.0 0.00 0.00 0.00 79 1019.3
20190324172851 70 198 4.0 10.0 0.00 0.00 0.00 79 1019.3
20190324172747 70 186 4.0 9.0 0.00 0.00 0.00 79 1019.2
20190324172640 70 214 4.0 9.0 0.00 0.00 0.00 79 1019.2
20190324172552 70 229 4.0 9.0 0.00 0.00 0.00 79 1019.2
20190324172440 70 198 4.0 9.0 0.00 0.00 0.00 78 1019.2
20190324172353 70 155 5.0 9.0 0.00 0.00 0.00 78 1019.2
20190324172249 70 158 4.0 9.0 0.00 0.00 0.00 78 1019.2
20190324172140 70 158 4.0 9.0 0.00 0.00 0.00 79 1019.2
20190324172052 70 155 4.0 9.0 0.00 0.00 0.00 78 1019.2
20190324171943 70 125 4.0 9.0 0.00 0.00 0.00 78 1019.2
20190324171855 70 162 4.0 9.0 0.00 0.00 0.00 78 1019.2
20190324171749 70 224 5.0 9.0 0.00 0.00 0.00 78 1019.2
20190324171641 70 167 5.0 10.0 0.00 0.00 0.00 78 1019.3
20190324171553 70 186 5.0 10.0 0.00 0.00 0.00 78 1019.3
20190324171440 70 136 5.0 10.0 0.00 0.00 0.00 78 1019.3
20190324171351 70 184 5.0 10.0 0.00 0.00 0.00 78 1019.3
20190324171244 70 212 3.0 10.0 0.00 0.00 0.00 79 1019.3
20190324171141 70 170 3.0 10.0 0.00 0.00 0.00 78 1019.3
20190324171053 70 202 4.0 10.0 0.00 0.00 0.00 78 1019.3
20190324170941 70 141 4.0 10.0 0.00 0.00 0.00 79 1019.3
20190324170853 70 148 4.0 10.0 0.00 0.00 0.00 79 1019.3
20190324170748 70 147 5.0 10.0 0.00 0.00 0.00 79 1019.3
20190324170638 70 137 5.0 10.0 0.00 0.00 0.00 79 1019.3
20190324170550 70 153 3.0 10.0 0.00 0.00 0.00 79 1019.3
20190324170438 70 188 2.0 10.0 0.00 0.00 0.00 80 1019.2
20190324170351 70 168 3.0 10.0 0.00 0.00 0.00 79 1019.2
20190324170247 70 219 4.0 10.0 0.00 0.00 0.00 79 1019.2
20190324170140 70 221 4.0 10.0 0.00 0.00 0.00 79 1019.2
20190324170052 70 161 4.0 10.0 0.00 0.00 0.00 79 1019.2
20190324170015 70 128 4.0 10.0 0.00 0.00 0.00 78 1019.2
20190324165847 70 124 4.0 9.0 0.00 0.00 0.00 79 1019.2
20190324165738 70 266 4.0 11.0 0.00 0.00 0.00 79 1019.2
20190324165651 70 140 5.0 11.0 0.00 0.00 0.00 79 1019.2
20190324165543 70 232 4.0 11.0 0.00 0.00 0.00 79 1019.3
20190324165453 70 134 3.0 11.0 0.00 0.00 0.00 79 1019.3
20190324165346 70 171 4.0 11.0 0.00 0.00 0.00 79 1019.3
20190324165238 70 183 5.0 11.0 0.00 0.00 0.00 79 1019.3
20190324165153 70 148 5.0 11.0 0.00 0.00 0.00 79 1019.3
20190324165044 70 179 6.0 11.0 0.00 0.00 0.00 79 1019.3
20190324164950 70 140 6.0 11.0 0.00 0.00 0.00 79 1019.4
20190324164843 70 224 4.0 10.0 0.00 0.00 0.00 79 1019.4
20190324164755 70 146 3.0 10.0 0.00 0.00 0.00 79 1019.4
20190324164651 69 203 3.0 10.0 0.00 0.00 0.00 79 1019.4
20190324164543 69 200 4.0 10.0 0.00 0.00 0.00 78 1019.4
20190324164450 69 203 5.0 10.0 0.00 0.00 0.00 79 1019.4
20190324164402 69 233 5.0 10.0 0.00 0.00 0.00 79 1019.5
20190324164253 69 167 6.0 10.0 0.00 0.00 0.00 79 1019.4
20190324164147 69 168 6.0 10.0 0.00 0.00 0.00 79 1019.5
20190324164038 69 148 5.0 10.0 0.00 0.00 0.00 79 1019.5
20190324163946 69 147 5.0 11.0 0.00 0.00 0.00 79 1019.5
20190324163857 69 108 4.0 11.0 0.00 0.00 0.00 80 1019.5
20190324163753 69 218 4.0 11.0 0.00 0.00 0.00 81 1019.5
20190324163647 69 212 5.0 11.0 0.00 0.00 0.00 80 1019.5
20190324163557 69 161 5.0 11.0 0.00 0.00 0.00 80 1019.5
20190324163443 69 166 5.0 11.0 0.00 0.00 0.00 81 1019.6
20190324163355 69 212 6.0 11.0 0.00 0.00 0.00 81 1019.6
20190324163248 69 261 5.0 11.0 0.00 0.00 0.00 80 1019.6
20190324163140 69 193 5.0 11.0 0.00 0.00 0.00 81 1019.6
20190324163051 69 179 4.0 9.0 0.00 0.00 0.00 81 1019.6
20190324162942 69 167 4.0 8.0 0.00 0.00 0.00 81 1019.6
20190324162855 69 210 4.0 8.0 0.00 0.00 0.00 81 1019.6
20190324162747 69 166 4.0 8.0 0.00 0.00 0.00 81 1019.6
20190324162641 69 133 4.0 8.0 0.00 0.00 0.00 82 1019.6
20190324162553 69 196 4.0 8.0 0.00 0.00 0.00 82 1019.6
20190324162441 69 175 4.0 8.0 0.00 0.00 0.00 82 1019.6
20190324162354 69 118 3.0 8.0 0.00 0.00 0.00 82 1019.6
20190324162247 69 244 4.0 8.0 0.00 0.00 0.00 82 1019.6
20190324162151 69 195 4.0 8.0 0.00 0.00 0.00 82 1019.5
20190324162045 69 148 5.0 8.0 0.00 0.00 0.00 82 1019.6
20190324161952 69 194 4.0 8.0 0.00 0.00 0.00 81 1019.6
20190324161844 69 174 3.0 8.0 0.00 0.00 0.00 82 1019.6
20190324161756 69 154 3.0 10.0 0.00 0.00 0.00 82 1019.5
20190324161647 69 167 3.0 10.0 0.00 0.00 0.00 82 1019.5
20190324161540 69 144 3.0 10.0 0.00 0.00 0.00 82 1019.5
20190324161447 68 148 3.0 10.0 0.00 0.00 0.00 83 1019.5
20190324161340 68 143 4.0 10.0 0.00 0.00 0.00 82 1019.5
20190324161256 68 165 4.0 10.0 0.00 0.00 0.00 83 1019.5
20190324161147 68 184 4.0 10.0 0.00 0.00 0.00 82 1019.5
20190324161038 68 176 5.0 10.0 0.00 0.00 0.00 83 1019.5
20190324160946 68 167 4.0 10.0 0.00 0.00 0.00 83 1019.5
20190324160838 68 143 3.0 10.0 0.00 0.00 0.00 83 1019.5
20190324160751 68 154 3.0 10.0 0.00 0.00 0.00 83 1019.5
20190324160643 68 174 5.0 10.0 0.00 0.00 0.00 83 1019.5
20190324160555 68 143 4.0 10.0 0.00 0.00 0.00 83 1019.5
20190324160447 68 148 4.0 8.0 0.00 0.00 0.00 83 1019.5
20190324160359 68 150 4.0 8.0 0.00 0.00 0.00 83 1019.4
20190324160249 68 155 4.0 8.0 0.00 0.00 0.00 84 1019.5
20190324160141 68 148 4.0 8.0 0.00 0.00 0.00 84 1019.4
20190324160055 68 162 3.0 8.0 0.00 0.00 0.00 84 1019.4
20190324160014 68 129 3.0 8.0 0.00 0.00 0.00 84 1019.4
20190324155846 68 150 3.0 11.0 0.00 0.00 0.00 84 1019.4
20190324155757 68 164 3.0 11.0 0.00 0.00 0.00 84 1019.4
20190324155650 68 160 4.0 11.0 0.00 0.00 0.00 84 1019.4
20190324155546 68 222 4.0 11.0 0.00 0.00 0.00 84 1019.4
20190324155452 68 213 5.0 11.0 0.00 0.00 0.00 84 1019.4
20190324155345 68 165 3.0 11.0 0.00 0.00 0.00 84 1019.4
20190324155256 68 149 3.0 11.0 0.00 0.00 0.00 85 1019.4
20190324155149 68 181 4.0 11.0 0.00 0.00 0.00 84 1019.4
20190324155059 68 142 4.0 11.0 0.00 0.00 0.00 85 1019.4
20190324155007 68 115 3.0 9.0 0.00 0.00 0.00 85 1019.4
20190324154857 68 166 3.0 9.0 0.00 0.00 0.00 85 1019.4
20190324154750 67 132 3.0 10.0 0.00 0.00 0.00 86 1019.4
20190324154647 67 155 3.0 10.0 0.00 0.00 0.00 86 1019.4
20190324154539 67 205 4.0 10.0 0.00 0.00 0.00 85 1019.4
20190324154445 67 155 4.0 10.0 0.00 0.00 0.00 85 1019.4
20190324154338 67 138 4.0 10.0 0.00 0.00 0.00 85 1019.4
20190324154251 67 155 5.0 10.0 0.00 0.00 0.00 85 1019.4
20190324154143 67 147 5.0 10.0 0.00 0.00 0.00 85 1019.5
20190324154054 67 160 5.0 10.0 0.00 0.00 0.00 85 1019.5
20190324153941 67 145 4.0 8.0 0.00 0.00 0.00 85 1019.4
20190324153857 67 150 4.0 8.0 0.00 0.00 0.00 85 1019.4
20190324153750 67 236 4.0 8.0 0.00 0.00 0.00 86 1019.4
20190324153641 67 200 4.0 8.0 0.00 0.00 0.00 86 1019.5
20190324153552 67 136 3.0 8.0 0.00 0.00 0.00 86 1019.5
20190324153441 67 190 4.0 8.0 0.00 0.00 0.00 86 1019.4
20190324153354 67 175 4.0 8.0 0.00 0.00 0.00 86 1019.4
20190324153247 67 250 3.0 8.0 0.00 0.00 0.00 86 1019.5
20190324153139 67 143 3.0 8.0 0.00 0.00 0.00 86 1019.4
20190324153055 67 124 3.0 8.0 0.00 0.00 0.00 86 1019.4
20190324152943 67 154 3.0 8.0 0.00 0.00 0.00 86 1019.4
20190324152855 67 155 2.0 8.0 0.00 0.00 0.00 86 1019.4
20190324152748 67 151 3.0 8.0 0.00 0.00 0.00 86 1019.4
20190324152639 67 139 5.0 8.0 0.00 0.00 0.00 86 1019.4
20190324152551 67 217 5.0 8.0 0.00 0.00 0.00 86 1019.4
20190324152438 67 188 4.0 10.0 0.00 0.00 0.00 86 1019.3
20190324152351 67 213 4.0 10.0 0.00 0.00 0.00 86 1019.3
20190324152247 67 159 3.0 10.0 0.00 0.00 0.00 87 1019.4
20190324152149 67 161 2.0 10.0 0.00 0.00 0.00 87 1019.4
20190324152038 67 205 2.0 10.0 0.00 0.00 0.00 88 1019.3
20190324151946 67 198 3.0 10.0 0.00 0.00 0.00 88 1019.3
20190324151858 66 203 3.0 10.0 0.00 0.00 0.00 87 1019.4
20190324151749 66 164 3.0 10.0 0.00 0.00 0.00 87 1019.3
20190324151641 66 143 4.0 9.0 0.00 0.00 0.00 87 1019.3
20190324151552 66 147 5.0 9.0 0.00 0.00 0.00 87 1019.3
20190324151441 66 161 4.0 8.0 0.00 0.00 0.00 88 1019.3
20190324151356 66 214 3.0 8.0 0.00 0.00 0.00 88 1019.3
20190324151248 66 214 4.0 8.0 0.00 0.00 0.00 88 1019.3
20190324151141 66 226 4.0 8.0 0.00 0.00 0.00 88 1019.3
20190324151053 66 196 4.0 8.0 0.00 0.00 0.00 88 1019.3
20190324150941 66 182 4.0 8.0 0.00 0.00 0.00 88 1019.3
20190324150853 66 145 4.0 8.0 0.00 0.00 0.00 88 1019.3
20190324150745 66 127 3.0 8.0 0.00 0.00 0.00 88 1019.3
20190324150658 66 158 4.0 8.0 0.00 0.00 0.00 88 1019.3
20190324150553 66 153 5.0 8.0 0.00 0.00 0.00 88 1019.3
20190324150441 66 143 4.0 8.0 0.00 0.00 0.00 88 1019.3
20190324150353 66 167 4.0 10.0 0.00 0.00 0.00 88 1019.3
20190324150246 66 150 5.0 10.0 0.00 0.00 0.00 88 1019.3
20190324150158 66 254 4.0 10.0 0.00 0.00 0.00 88 1019.3
20190324150050 66 207 4.0 10.0 0.00 0.00 0.00 88 1019.3
20190324150015 66 167 4.0 10.0 0.00 0.00 0.00 88 1019.3
20190324145847 66 205 4.0 10.0 0.00 0.00 0.00 88 1019.3
20190324145743 66 176 4.0 10.0 0.00 0.00 0.00 88 1019.2
20190324145655 66 214 4.0 10.0 0.00 0.00 0.00 88 1019.2
20190324145547 66 198 5.0 10.0 0.00 0.00 0.00 88 1019.3
20190324145455 66 153 4.0 8.0 0.00 0.00 0.00 88 1019.3
20190324145347 66 193 3.0 6.0 0.00 0.00 0.00 89 1019.4
20190324145238 66 160 3.0 6.0 0.00 0.00 0.00 89 1019.3
20190324145152 66 152 3.0 6.0 0.00 0.00 0.00 89 1019.3
20190324145042 66 196 3.0 6.0 0.00 0.00 0.00 89 1019.2
20190324144949 66 172 2.0 6.0 0.00 0.00 0.00 89 1019.2
20190324144905 66 160 3.0 8.0 0.00 0.00 0.00 89 1019.3
20190324144756 66 165 3.0 8.0 0.00 0.00 0.00 89 1019.2
20190324144649 66 221 3.0 8.0 0.00 0.00 0.00 89 1019.3
20190324144541 66 154 3.0 8.0 0.00 0.00 0.00 89 1019.2
20190324144449 66 190 3.0 8.0 0.00 0.00 0.00 89 1019.2
20190324144342 66 153 3.0 8.0 0.00 0.00 0.00 90 1019.2
20190324144253 66 212 3.0 8.0 0.00 0.00 0.00 90 1019.2
20190324144147 66 186 4.0 8.0 0.00 0.00 0.00 90 1019.2
20190324144044 66 170 4.0 8.0 0.00 0.00 0.00 90 1019.2
20190324143951 66 165 3.0 7.0 0.00 0.00 0.00 90 1019.2
20190324143843 66 194 3.0 10.0 0.00 0.00 0.00 90 1019.2
20190324143755 65 155 3.0 10.0 0.00 0.00 0.00 90 1019.2
20190324143647 65 197 3.0 10.0 0.00 0.00 0.00 90 1019.2
20190324143556 65 154 2.0 10.0 0.00 0.00 0.00 90 1019.2
20190324143444 65 150 3.0 10.0 0.00 0.00 0.00 90 1019.2
20190324143355 65 193 4.0 10.0 0.00 0.00 0.00 90 1019.2
20190324143247 65 158 5.0 10.0 0.00 0.00 0.00 90 1019.2
20190324143144 65 165 5.0 10.0 0.00 0.00 0.00 90 1019.1
20190324143055 65 127 5.0 10.0 0.00 0.00 0.00 90 1019.1
20190324142944 65 162 4.0 9.0 0.00 0.00 0.00 90 1019.2
20190324142856 65 154 4.0 7.0 0.00 0.00 0.00 90 1019.1
20190324142748 65 172 3.0 7.0 0.00 0.00 0.00 90 1019.1
20190324142640 65 174 4.0 8.0 0.00 0.00 0.00 90 1019.1
20190324142553 65 161 4.0 8.0 0.00 0.00 0.00 90 1019.1
20190324142440 65 165 4.0 8.0 0.00 0.00 0.00 90 1019.1
20190324142355 65 184 4.0 8.0 0.00 0.00 0.00 90 1019.1
20190324142249 65 205 4.0 8.0 0.00 0.00 0.00 90 1019.1
20190324142140 65 195 4.0 8.0 0.00 0.00 0.00 90 1019.1
20190324142052 65 155 4.0 8.0 0.00 0.00 0.00 90 1019.1
20190324141941 65 145 4.0 8.0 0.00 0.00 0.00 90 1019.1
20190324141852 65 175 3.0 8.0 0.00 0.00 0.00 90 1019.1
20190324141744 65 169 3.0 7.0 0.00 0.00 0.00 90 1019.1
20190324141656 65 156 3.0 7.0 0.00 0.00 0.00 90 1019.1
20190324141553 65 139 3.0 7.0 0.00 0.00 0.00 91 1019.1
20190324141442 65 236 3.0 8.0 0.00 0.00 0.00 91 1019.1
20190324141353 65 155 3.0 8.0 0.00 0.00 0.00 91 1019.1
20190324141246 65 158 2.0 8.0 0.00 0.00 0.00 91 1019.1
20190324141138 65 153 2.0 8.0 0.00 0.00 0.00 91 1019.1
20190324141051 65 210 2.0 8.0 0.00 0.00 0.00 91 1019.1
20190324140939 65 158 3.0 8.0 0.00 0.00 0.00 91 1019.1
20190324140850 65 224 2.0 8.0 0.00 0.00 0.00 91 1019.1
20190324140747 65 141 3.0 8.0 0.00 0.00 0.00 91 1019.1
20190324140659 65 214 3.0 8.0 0.00 0.00 0.00 91 1019.1
20190324140550 65 154 3.0 8.0 0.00 0.00 0.00 91 1019.1
20190324140457 65 181 3.0 8.0 0.00 0.00 0.00 91 1019.1
20190324140350 65 153 3.0 8.0 0.00 0.00 0.00 91 1019.1
20190324140242 65 150 3.0 8.0 0.00 0.00 0.00 91 1019.0
20190324140154 65 155 3.0 8.0 0.00 0.00 0.00 91 1019.0
20190324140047 65 148 3.0 8.0 0.00 0.00 0.00 91 1019.0
20190324140005 65 148 3.0 8.0 0.00 0.00 0.00 91 1019.0
20190324135842 65 222 3.0 8.0 0.00 0.00 0.00 91 1019.0
20190324135753 65 195 3.0 8.0 0.00 0.00 0.00 91 1019.0
20190324135647 65 158 2.0 10.0 0.00 0.00 0.00 91 1019.0
20190324135539 65 146 2.0 10.0 0.00 0.00 0.00 91 1019.0
20190324135446 65 155 2.0 10.0 0.00 0.00 0.00 91 1019.0
20190324135357 65 166 3.0 10.0 0.00 0.00 0.00 91 1019.1
20190324135250 65 133 4.0 10.0 0.00 0.00 0.00 91 1019.0
20190324135204 65 174 3.0 10.0 0.00 0.00 0.00 91 1019.0
20190324135115 65 226 3.0 10.0 0.00 0.00 0.00 91 1019.0
20190324134854 65 169 4.0 10.0 0.00 0.00 0.00 91 1019.0
20190324134746 65 167 3.0 6.0 0.00 0.00 0.00 91 1019.0
20190324134657 65 223 3.0 6.0 0.00 0.00 0.00 91 1019.0
20190324134549 65 147 2.0 6.0 0.00 0.00 0.00 91 1019.0
20190324134456 65 155 2.0 6.0 0.00 0.00 0.00 91 1019.0
20190324134349 65 155 3.0 6.0 0.00 0.00 0.00 91 1019.0
20190324134242 65 184 3.0 6.0 0.00 0.00 0.00 91 1019.0
20190324134138 65 136 3.0 6.0 0.00 0.00 0.00 91 1019.0
20190324134051 65 179 3.0 6.0 0.00 0.00 0.00 91 1019.0
20190324133940 65 165 3.0 6.0 0.00 0.00 0.00 91 1019.0
20190324133852 65 144 4.0 7.0 0.00 0.00 0.00 91 1019.0
20190324133744 65 234 3.0 7.0 0.00 0.00 0.00 91 1019.0
20190324133656 65 139 3.0 7.0 0.00 0.00 0.00 91 1019.0
20190324133547 64 178 3.0 7.0 0.00 0.00 0.00 91 1019.0
20190324133454 65 154 2.0 7.0 0.00 0.00 0.00 91 1018.9
20190324133347 64 233 2.0 7.0 0.00 0.00 0.00 91 1018.9
20190324133243 64 134 3.0 7.0 0.00 0.00 0.00 91 1018.9
20190324133155 64 160 3.0 7.0 0.00 0.00 0.00 91 1018.9
20190324133047 64 155 3.0 7.0 0.00 0.00 0.00 91 1019.0
20190324132954 64 114 3.0 7.0 0.00 0.00 0.00 91 1018.9
20190324132847 64 163 3.0 7.0 0.00 0.00 0.00 91 1018.9
20190324132738 64 166 3.0 7.0 0.00 0.00 0.00 91 1018.9
20190324132650 64 224 2.0 7.0 0.00 0.00 0.00 91 1018.9
20190324132544 64 172 2.0 7.0 0.00 0.00 0.00 91 1018.9
20190324132454 64 123 2.0 7.0 0.00 0.00 0.00 91 1018.8
20190324132347 64 158 3.0 7.0 0.00 0.00 0.00 91 1018.8
20190324132239 64 166 3.0 7.0 0.00 0.00 0.00 91 1018.8
20190324132154 64 143 3.0 7.0 0.00 0.00 0.00 91 1018.8
20190324132046 64 264 3.0 7.0 0.00 0.00 0.00 91 1018.8
20190324131953 64 155 2.0 7.0 0.00 0.00 0.00 91 1018.8
20190324131847 64 221 2.0 7.0 0.00 0.00 0.00 91 1018.7
20190324131802 64 206 2.0 7.0 0.00 0.00 0.00 91 1018.7
20190324131715 64 189 3.0 7.0 0.00 0.00 0.00 91 1018.8
20190324131450 64 221 3.0 7.0 0.00 0.00 0.00 91 1018.7
20190324131341 64 152 3.0 6.0 0.00 0.00 0.00 91 1018.7
20190324131253 64 155 3.0 6.0 0.00 0.00 0.00 91 1018.7
20190324131147 64 137 3.0 6.0 0.00 0.00 0.00 92 1018.7
20190324131057 64 170 3.0 6.0 0.00 0.00 0.00 92 1018.7
20190324130943 64 184 3.0 7.0 0.00 0.00 0.00 92 1018.6
20190324130855 64 160 3.0 7.0 0.00 0.00 0.00 92 1018.6
20190324130749 64 200 3.0 7.0 0.00 0.00 0.00 92 1018.6
20190324130647 64 142 3.0 7.0 0.00 0.00 0.00 92 1018.6
20190324130555 64 147 3.0 7.0 0.00 0.00 0.00 92 1018.6
20190324130442 64 179 3.0 7.0 0.00 0.00 0.00 92 1018.6
20190324130354 64 200 3.0 7.0 0.00 0.00 0.00 92 1018.6
20190324130246 64 200 3.0 7.0 0.00 0.00 0.00 92 1018.6
20190324130138 64 161 4.0 7.0 0.00 0.00 0.00 92 1018.6
20190324130051 64 153 4.0 7.0 0.00 0.00 0.00 92 1018.6
20190324130015 64 195 3.0 7.0 0.00 0.00 0.00 92 1018.6
20190324125850 64 164 3.0 7.0 0.00 0.00 0.00 92 1018.5
20190324125742 64 166 4.0 7.0 0.00 0.00 0.00 92 1018.5
20190324125655 64 125 3.0 7.0 0.00 0.00 0.00 92 1018.5
20190324125547 64 146 2.0 6.0 0.00 0.00 0.00 92 1018.5
20190324125454 64 135 2.0 7.0 0.00 0.00 0.00 92 1018.6
20190324125347 64 141 2.0 7.0 0.00 0.00 0.00 92 1018.6
20190324125239 64 139 2.0 7.0 0.00 0.00 0.00 92 1018.5
20190324125154 64 146 2.0 7.0 0.00 0.00 0.00 93 1018.5
20190324125049 64 153 3.0 7.0 0.00 0.00 0.00 93 1018.5
20190324124956 64 212 3.0 7.0 0.00 0.00 0.00 93 1018.5
20190324124849 64 138 2.0 7.0 0.00 0.00 0.00 93 1018.4
20190324124740 64 156 3.0 7.0 0.00 0.00 0.00 93 1018.4
20190324124652 64 145 3.0 7.0 0.00 0.00 0.00 93 1018.4
20190324124545 64 153 2.0 6.0 0.00 0.00 0.00 93 1018.4
20190324124453 64 200 2.0 6.0 0.00 0.00 0.00 93 1018.4
20190324124344 64 184 3.0 6.0 0.00 0.00 0.00 93 1018.4
20190324124241 64 159 3.0 6.0 0.00 0.00 0.00 93 1018.3
20190324124152 64 219 2.0 6.0 0.00 0.00 0.00 93 1018.3
20190324124045 64 170 2.0 5.0 0.00 0.00 0.00 93 1018.3
20190324123952 64 185 2.0 5.0 0.00 0.00 0.00 93 1018.3
20190324123844 64 148 1.0 5.0 0.00 0.00 0.00 93 1018.3
20190324123757 64 162 1.0 5.0 0.00 0.00 0.00 93 1018.2
20190324123651 64 172 2.0 5.0 0.00 0.00 0.00 93 1018.3
20190324123542 64 162 2.0 5.0 0.00 0.00 0.00 93 1018.3
20190324123448 64 159 1.0 6.0 0.00 0.00 0.00 93 1018.3
20190324123345 64 154 1.0 6.0 0.00 0.00 0.00 93 1018.3
20190324123238 64 155 1.0 6.0 0.00 0.00 0.00 93 1018.2
20190324123150 64 155 2.0 6.0 0.00 0.00 0.00 93 1018.2
20190324123044 64 185 1.0 6.0 0.00 0.00 0.00 93 1018.3
20190324122950 64 155 2.0 6.0 0.00 0.00 0.00 93 1018.2
20190324122844 64 138 2.0 6.0 0.00 0.00 0.00 93 1018.2
20190324122757 64 153 3.0 6.0 0.00 0.00 0.00 93 1018.2
20190324122651 64 131 2.0 6.0 0.00 0.00 0.00 93 1018.2
20190324122548 64 156 1.0 6.0 0.00 0.00 0.00 93 1018.1
20190324122456 64 153 1.0 6.0 0.00 0.00 0.00 93 1018.2
20190324122348 64 155 2.0 6.0 0.00 0.00 0.00 93 1018.1
20190324122240 64 144 1.0 6.0 0.00 0.00 0.00 93 1018.1
20190324122154 64 158 2.0 6.0 0.00 0.00 0.00 93 1018.1
20190324122045 64 155 2.0 6.0 0.00 0.00 0.00 93 1018.1
20190324121952 64 157 1.0 6.0 0.00 0.00 0.00 93 1018.0
20190324121845 64 129 1.0 6.0 0.00 0.00 0.00 93 1018.1
20190324121744 64 246 1.0 6.0 0.00 0.00 0.00 93 1018.0
20190324121656 64 157 2.0 6.0 0.00 0.00 0.00 93 1018.1
20190324121548 64 180 2.0 6.0 0.00 0.00 0.00 93 1018.1
20190324121456 64 208 2.0 5.0 0.00 0.00 0.00 93 1018.0
20190324121348 64 187 1.0 5.0 0.00 0.00 0.00 93 1017.9
20190324121241 64 152 0.0 5.0 0.00 0.00 0.00 93 1017.9
20190324121152 64 152 0.0 5.0 0.00 0.00 0.00 93 1017.9
20190324121044 64 152 1.0 5.0 0.00 0.00 0.00 93 1017.9
20190324120956 64 152 2.0 5.0 0.00 0.00 0.00 93 1018.0
20190324120848 64 138 2.0 5.0 0.00 0.00 0.00 93 1017.9
20190324120741 64 191 3.0 5.0 0.00 0.00 0.00 93 1018.0
20190324120654 64 146 2.0 5.0 0.00 0.00 0.00 93 1018.0
20190324120544 64 165 2.0 5.0 0.00 0.00 0.00 93 1018.0
20190324120452 64 152 2.0 5.0 0.00 0.00 0.00 93 1018.0
20190324120346 64 134 2.0 5.0 0.00 0.00 0.00 93 1018.0
20190324120237 64 144 2.0 5.0 0.00 0.00 0.00 93 1018.0
20190324120154 64 147 2.0 5.0 0.00 0.00 0.00 93 1018.0
20190324120047 64 121 2.0 5.0 0.00 0.00 0.00 93 1018.0
20190324120004 64 207 3.0 5.0 0.00 0.00 0.00 93 1018.0
20190324115856 64 169 2.0 5.0 0.00 0.00 0.00 93 1018.0
20190324115749 64 147 2.0 7.0 0.00 0.00 0.00 93 1018.0
20190324115641 64 161 2.0 7.0 0.00 0.00 0.00 93 1017.9
20190324115553 64 170 3.0 7.0 0.00 0.00 0.00 93 1017.9
20190324115441 64 195 3.0 7.0 0.00 0.00 0.00 93 1018.0
20190324115352 64 169 2.0 7.0 0.00 0.00 0.00 93 1018.0
20190324115251 64 134 2.0 7.0 0.00 0.00 0.00 93 1018.0
20190324115142 64 153 2.0 7.0 0.00 0.00 0.00 93 1018.0
20190324115053 64 164 3.0 7.0 0.00 0.00 0.00 93 1018.0
20190324114941 64 165 3.0 8.0 0.00 0.00 0.00 93 1018.0
20190324114853 64 181 3.0 8.0 0.00 0.00 0.00 93 1018.0
20190324114745 64 153 3.0 8.0 0.00 0.00 0.00 93 1017.9
20190324114638 64 154 3.0 8.0 0.00 0.00 0.00 93 1017.9
20190324114551 64 173 2.0 8.0 0.00 0.00 0.00 93 1017.9
20190324114442 64 164 2.0 8.0 0.00 0.00 0.00 93 1017.9
20190324114354 64 214 2.0 8.0 0.00 0.00 0.00 93 1017.9
20190324114247 64 165 3.0 8.0 0.00 0.00 0.00 93 1017.9
20190324114139 64 181 4.0 8.0 0.00 0.00 0.00 93 1017.9
20190324114052 64 150 3.0 8.0 0.00 0.00 0.00 93 1017.9
20190324113938 64 165 2.0 6.0 0.00 0.00 0.00 93 1017.9
20190324113851 64 146 2.0 6.0 0.00 0.00 0.00 93 1017.9
20190324113747 64 157 3.0 6.0 0.00 0.00 0.00 93 1017.9
20190324113642 64 146 2.0 6.0 0.00 0.00 0.00 93 1017.9
20190324113555 64 147 2.0 6.0 0.00 0.00 0.00 93 1017.9
20190324113444 64 130 2.0 6.0 0.00 0.00 0.00 93 1018.0
20190324113356 64 148 2.0 8.0 0.00 0.00 0.00 94 1018.0
20190324113249 64 229 2.0 8.0 0.00 0.00 0.00 94 1017.9
20190324113141 64 148 2.0 8.0 0.00 0.00 0.00 94 1017.9
20190324113052 64 141 2.0 8.0 0.00 0.00 0.00 94 1017.9
20190324112940 64 128 2.0 8.0 0.00 0.00 0.00 94 1017.9
20190324112855 64 136 3.0 8.0 0.00 0.00 0.00 94 1017.9
20190324112748 64 164 2.0 8.0 0.00 0.00 0.00 94 1017.9
20190324112639 64 207 2.0 8.0 0.00 0.00 0.00 94 1017.9
20190324112551 64 149 3.0 8.0 0.00 0.00 0.00 94 1017.9
20190324112438 64 174 3.0 9.0 0.00 0.00 0.00 94 1017.8
20190324112351 64 163 2.0 9.0 0.00 0.00 0.00 94 1017.8
20190324112247 64 150 2.0 9.0 0.00 0.00 0.00 94 1017.8
20190324112138 64 160 3.0 9.0 0.00 0.00 0.00 94 1017.8
20190324112055 64 181 3.0 9.0 0.00 0.00 0.00 94 1017.8
20190324111942 64 168 4.0 9.0 0.00 0.00 0.00 94 1017.7
20190324111853 64 175 4.0 9.0 0.00 0.00 0.00 94 1017.7
20190324111746 64 162 4.0 9.0 0.00 0.00 0.00 94 1017.7
20190324111657 64 172 4.0 9.0 0.00 0.00 0.00 94 1017.7
20190324111549 64 110 4.0 8.0 0.00 0.00 0.00 94 1017.7
20190324111457 64 153 4.0 8.0 0.00 0.00 0.00 94 1017.6
20190324111349 64 155 3.0 8.0 0.00 0.00 0.00 94 1017.7
20190324111245 64 142 3.0 8.0 0.00 0.00 0.00 94 1017.6
20190324111138 64 211 2.0 8.0 0.00 0.00 0.00 94 1017.7
20190324111051 64 146 2.0 5.0 0.00 0.00 0.00 94 1017.7
20190324110938 64 160 3.0 5.0 0.00 0.00 0.00 94 1017.6
20190324110850 63 160 3.0 5.0 0.00 0.00 0.00 94 1017.6
20190324110743 64 147 3.0 9.0 0.00 0.00 0.00 94 1017.6
20190324110656 63 165 2.0 9.0 0.00 0.00 0.00 94 1017.6
20190324110548 63 140 2.0 9.0 0.00 0.00 0.00 94 1017.6
20190324110439 63 147 2.0 9.0 0.00 0.00 0.00 94 1017.5
20190324110352 63 159 2.0 9.0 0.00 0.00 0.00 94 1017.5
20190324110244 63 174 2.0 9.0 0.00 0.00 0.00 94 1017.6
20190324110157 64 198 2.0 9.0 0.00 0.00 0.00 94 1017.5
20190324110050 64 174 3.0 9.0 0.00 0.00 0.00 94 1017.5
20190324110015 63 155 3.0 9.0 0.00 0.00 0.00 94 1017.5
20190324105846 63 151 2.0 5.0 0.00 0.00 0.00 94 1017.5
20190324105739 63 153 2.0 5.0 0.00 0.00 0.00 94 1017.5
20190324105653 64 153 1.0 5.0 0.00 0.00 0.00 94 1017.5
20190324105549 64 152 1.0 5.0 0.00 0.00 0.00 94 1017.4
20190324105457 64 158 2.0 5.0 0.00 0.00 0.00 94 1017.4
20190324105350 64 139 1.0 5.0 0.00 0.00 0.00 94 1017.4
20190324105242 64 126 2.0 5.0 0.00 0.00 0.00 93 1017.4
20190324105155 64 143 2.0 5.0 0.00 0.00 0.00 93 1017.4
20190324105047 64 150 2.0 5.0 0.00 0.00 0.00 93 1017.4
20190324104953 64 125 3.0 7.0 0.00 0.00 0.00 93 1017.4
20190324104845 64 161 2.0 7.0 0.00 0.00 0.00 93 1017.4
20190324104741 64 136 2.0 7.0 0.00 0.00 0.00 93 1017.5
20190324104653 64 124 2.0 7.0 0.00 0.00 0.00 93 1017.5
20190324104545 64 146 2.0 7.0 0.00 0.00 0.00 93 1017.5
20190324104453 64 140 3.0 7.0 0.00 0.00 0.00 93 1017.5
20190324104345 64 163 3.0 7.0 0.00 0.00 0.00 93 1017.5
20190324104257 64 153 3.0 7.0 0.00 0.00 0.00 93 1017.5
20190324104150 64 146 4.0 7.0 0.00 0.00 0.00 93 1017.5
20190324104044 64 176 4.0 7.0 0.00 0.00 0.00 93 1017.5
20190324103954 64 159 3.0 7.0 0.00 0.00 0.00 93 1017.5
20190324103846 64 103 2.0 6.0 0.00 0.00 0.00 93 1017.5
20190324103738 64 149 3.0 6.0 0.00 0.00 0.00 93 1017.6
20190324103652 64 141 3.0 6.0 0.00 0.00 0.00 93 1017.6
20190324103542 64 130 2.0 6.0 0.00 0.00 0.00 93 1017.6
20190324103449 64 157 2.0 6.0 0.00 0.00 0.00 93 1017.6
20190324103341 64 161 2.0 6.0 0.00 0.00 0.00 93 1017.6
20190324103253 64 153 2.0 6.0 0.00 0.00 0.00 93 1017.6
20190324103149 64 191 2.0 5.0 0.00 0.00 0.00 93 1017.6
20190324103042 64 154 1.0 5.0 0.00 0.00 0.00 93 1017.6
20190324102948 64 158 1.0 5.0 0.00 0.00 0.00 93 1017.6
20190324102841 64 141 2.0 5.0 0.00 0.00 0.00 93 1017.6
20190324102754 64 139 1.0 5.0 0.00 0.00 0.00 93 1017.6
20190324102648 64 140 1.0 5.0 0.00 0.00 0.00 93 1017.7
20190324102539 64 143 2.0 5.0 0.00 0.00 0.00 93 1017.7
20190324102448 64 153 2.0 5.0 0.00 0.00 0.00 93 1017.7
20190324102344 64 149 2.0 5.0 0.00 0.00 0.00 93 1017.7
20190324102256 64 149 3.0 5.0 0.00 0.00 0.00 93 1017.7
20190324102151 64 148 2.0 5.0 0.00 0.00 0.00 93 1017.7
20190324102042 64 165 2.0 4.0 0.00 0.00 0.00 93 1017.7
20190324101949 64 158 2.0 4.0 0.00 0.00 0.00 93 1017.7
20190324101842 64 146 2.0 4.0 0.00 0.00 0.00 93 1017.8
20190324101755 64 142 2.0 4.0 0.00 0.00 0.00 93 1017.8
20190324101648 64 142 2.0 4.0 0.00 0.00 0.00 93 1017.8
20190324101543 64 152 2.0 5.0 0.00 0.00 0.00 93 1017.8
20190324101451 64 150 2.0 5.0 0.00 0.00 0.00 92 1017.9
20190324101345 64 184 2.0 5.0 0.00 0.00 0.00 92 1017.9
20190324101256 64 140 1.0 5.0 0.00 0.00 0.00 92 1017.9
20190324101149 64 147 1.0 5.0 0.00 0.00 0.00 92 1017.9
20190324101042 64 159 1.0 5.0 0.00 0.00 0.00 92 1017.9
20190324100949 64 146 1.0 5.0 0.00 0.00 0.00 92 1017.9
20190324100843 64 141 2.0 5.0 0.00 0.00 0.00 92 1017.9
20190324100738 64 163 2.0 5.0 0.00 0.00 0.00 92 1017.9
20190324100652 64 169 2.0 5.0 0.00 0.00 0.00 92 1017.9
20190324100544 64 139 1.0 4.0 0.00 0.00 0.00 92 1017.9
20190324100451 64 133 0.0 4.0 0.00 0.00 0.00 92 1017.8
20190324100344 64 155 1.0 6.0 0.00 0.00 0.00 92 1017.9
20190324100257 64 157 2.0 6.0 0.00 0.00 0.00 92 1017.8
20190324100149 64 142 2.0 6.0 0.00 0.00 0.00 92 1017.9
20190324100042 64 150 1.0 6.0 0.00 0.00 0.00 92 1017.9
20190324100000 64 150 2.0 6.0 0.00 0.00 0.00 92 1017.9
20190324095857 64 123 1.0 6.0 0.00 0.00 0.00 92 1017.9
20190324095751 64 137 1.0 6.0 0.00 0.00 0.00 92 1017.9
20190324095643 64 137 2.0 6.0 0.00 0.00 0.00 92 1017.9
20190324095556 64 139 2.0 6.0 0.00 0.00 0.00 91 1017.9
20190324095443 64 157 1.0 5.0 0.00 0.00 0.00 91 1017.9
20190324095357 64 153 1.0 5.0 0.00 0.00 0.00 91 1017.9
20190324095251 64 167 2.0 5.0 0.00 0.00 0.00 91 1017.9
20190324095147 64 172 2.0 5.0 0.00 0.00 0.00 91 1017.9
20190324095042 64 157 1.0 5.0 0.00 0.00 0.00 91 1017.8
20190324094951 64 141 1.0 5.0 0.00 0.00 0.00 91 1017.8
20190324094844 64 146 2.0 5.0 0.00 0.00 0.00 91 1017.8
20190324094757 64 177 2.0 5.0 0.00 0.00 0.00 91 1017.8
20190324094651 64 167 2.0 5.0 0.00 0.00 0.00 91 1017.8
20190324094545 64 148 2.0 5.0 0.00 0.00 0.00 91 1017.8
20190324094453 64 176 3.0 5.0 0.00 0.00 0.00 91 1017.8
20190324094346 64 150 2.0 5.0 0.00 0.00 0.00 91 1017.8
20190324094242 64 135 1.0 4.0 0.00 0.00 0.00 91 1017.8
20190324094155 64 152 1.0 4.0 0.00 0.00 0.00 91 1017.8
20190324094048 64 152 1.0 4.0 0.00 0.00 0.00 91 1017.8
20190324093957 64 151 1.0 4.0 0.00 0.00 0.00 91 1017.8
20190324093851 64 162 1.0 5.0 0.00 0.00 0.00 91 1017.8
20190324093747 64 153 1.0 5.0 0.00 0.00 0.00 91 1017.7
20190324093638 64 205 1.0 5.0 0.00 0.00 0.00 91 1017.8
20190324093552 64 154 2.0 5.0 0.00 0.00 0.00 91 1017.8
20190324093443 64 136 2.0 5.0 0.00 0.00 0.00 91 1017.7
20190324093356 64 143 1.0 5.0 0.00 0.00 0.00 91 1017.7
20190324093249 64 159 1.0 6.0 0.00 0.00 0.00 91 1017.7
20190324093142 64 161 2.0 6.0 0.00 0.00 0.00 91 1017.7
20190324093055 64 135 2.0 6.0 0.00 0.00 0.00 91 1017.7
20190324092945 64 165 2.0 6.0 0.00 0.00 0.00 91 1017.7
20190324092838 64 222 3.0 6.0 0.00 0.00 0.00 91 1017.7
20190324092752 64 148 3.0 6.0 0.00 0.00 0.00 91 1017.7
20190324092650 64 154 2.0 6.0 0.00 0.00 0.00 91 1017.7
20190324092545 64 146 2.0 6.0 0.00 0.00 0.00 91 1017.6
20190324092452 64 113 2.0 5.0 0.00 0.00 0.00 91 1017.6
20190324092345 64 169 2.0 5.0 0.00 0.00 0.00 91 1017.6
20190324092238 64 144 2.0 5.0 0.00 0.00 0.00 91 1017.6
20190324092153 64 158 1.0 5.0 0.00 0.00 0.00 91 1017.6
20190324092043 64 150 2.0 5.0 0.00 0.00 0.00 91 1017.6
20190324091952 64 127 2.0 5.0 0.00 0.00 0.00 91 1017.7
20190324091849 64 122 2.0 5.0 0.00 0.00 0.00 91 1017.6
20190324091741 64 194 2.0 5.0 0.00 0.00 0.00 91 1017.7
20190324091653 64 149 2.0 5.0 0.00 0.00 0.00 91 1017.7
20190324091547 64 143 3.0 5.0 0.00 0.00 0.00 91 1017.6
20190324091453 64 223 2.0 5.0 0.00 0.00 0.00 91 1017.7
20190324091345 64 156 2.0 7.0 0.00 0.00 0.00 91 1017.7
20190324091238 64 145 1.0 7.0 0.00 0.00 0.00 91 1017.7
20190324091152 64 171 2.0 7.0 0.00 0.00 0.00 91 1017.7
20190324091049 64 142 3.0 7.0 0.00 0.00 0.00 91 1017.7
20190324090938 64 185 3.0 7.0 0.00 0.00 0.00 91 1017.7
20190324090852 64 143 3.0 7.0 0.00 0.00 0.00 91 1017.7
20190324090746 64 170 2.0 7.0 0.00 0.00 0.00 91 1017.7
20190324090638 64 147 2.0 7.0 0.00 0.00 0.00 91 1017.7
20190324090552 64 147 3.0 7.0 0.00 0.00 0.00 91 1017.7
20190324090441 64 234 2.0 5.0 0.00 0.00 0.00 91 1017.7
20190324090353 64 141 1.0 5.0 0.00 0.00 0.00 91 1017.7
20190324090250 64 188 1.0 5.0 0.00 0.00 0.00 91 1017.7
20190324090145 64 214 1.0 6.0 0.00 0.00 0.00 91 1017.6
20190324090058 64 156 1.0 6.0 0.00 0.00 0.00 91 1017.7
20190324090021 64 156 1.0 6.0 0.00 0.00 0.00 91 1017.7
20190324085854 64 149 2.0 6.0 0.00 0.00 0.00 91 1017.7
20190324085748 64 88 1.0 6.0 0.00 0.00 0.00 91 1017.7
20190324085641 64 116 1.0 6.0 0.00 0.00 0.00 91 1017.7
20190324085552 64 139 2.0 6.0 0.00 0.00 0.00 91 1017.7
20190324085445 64 172 3.0 6.0 0.00 0.00 0.00 91 1017.7
20190324085338 64 187 3.0 6.0 0.00 0.00 0.00 91 1017.7
20190324085251 64 174 2.0 6.0 0.00 0.00 0.00 91 1017.7
20190324085146 64 107 1.0 6.0 0.00 0.00 0.00 91 1017.7
20190324085038 64 148 2.0 6.0 0.00 0.00 0.00 91 1017.7
20190324084946 64 174 2.0 7.0 0.00 0.00 0.00 91 1017.7
20190324084841 64 147 1.0 7.0 0.00 0.00 0.00 91 1017.7
20190324084753 64 146 2.0 7.0 0.00 0.00 0.00 91 1017.7
20190324084650 64 146 2.0 7.0 0.00 0.00 0.00 91 1017.6
20190324084544 64 146 2.0 7.0 0.00 0.00 0.00 91 1017.7
20190324084452 64 140 3.0 7.0 0.00 0.00 0.00 91 1017.7
20190324084345 64 160 3.0 7.0 0.00 0.00 0.00 91 1017.7
20190324084239 64 157 3.0 7.0 0.00 0.00 0.00 91 1017.6
20190324084153 64 187 3.0 7.0 0.00 0.00 0.00 91 1017.6
20190324084047 64 130 2.0 7.0 0.00 0.00 0.00 91 1017.5
20190324083956 64 144 2.0 7.0 0.00 0.00 0.00 91 1017.6
20190324083854 64 176 2.0 7.0 0.00 0.00 0.00 91 1017.6
20190324083748 64 143 2.0 7.0 0.00 0.00 0.00 91 1017.6
20190324083639 64 146 2.0 7.0 0.00 0.00 0.00 91 1017.6
20190324083553 64 165 3.0 7.0 0.00 0.00 0.00 91 1017.6
20190324083442 64 146 3.0 7.0 0.00 0.00 0.00 91 1017.6
20190324083355 64 129 2.0 7.0 0.00 0.00 0.00 91 1017.6
20190324083249 64 163 2.0 7.0 0.00 0.00 0.00 91 1017.6
20190324083142 64 141 3.0 7.0 0.00 0.00 0.00 91 1017.6
20190324083040 64 120 3.0 7.0 0.00 0.00 0.00 91 1017.6
20190324082949 64 136 3.0 7.0 0.00 0.00 0.00 91 1017.6
20190324082842 64 145 2.0 7.0 0.00 0.00 0.00 91 1017.7
20190324082755 64 188 2.0 7.0 0.00 0.00 0.00 91 1017.7
20190324082649 64 153 3.0 7.0 0.00 0.00 0.00 91 1017.7
20190324082542 64 177 3.0 7.0 0.00 0.00 0.00 91 1017.7
20190324082450 64 141 3.0 7.0 0.00 0.00 0.00 91 1017.7
20190324082343 64 143 2.0 7.0 0.00 0.00 0.00 91 1017.7
20190324082241 64 160 2.0 7.0 0.00 0.00 0.00 91 1017.7
20190324082155 64 153 3.0 7.0 0.00 0.00 0.00 91 1017.7
20190324082048 64 172 2.0 7.0 0.00 0.00 0.00 91 1017.7
20190324081956 64 155 2.0 7.0 0.00 0.00 0.00 91 1017.7
20190324081849 64 162 2.0 7.0 0.00 0.00 0.00 91 1017.7
20190324081741 64 153 2.0 6.0 0.00 0.00 0.00 91 1017.7
20190324081655 64 155 2.0 6.0 0.00 0.00 0.00 91 1017.7
20190324081547 64 143 2.0 6.0 0.00 0.00 0.00 91 1017.8
20190324081439 64 155 3.0 6.0 0.00 0.00 0.00 91 1017.8
20190324081353 64 143 3.0 6.0 0.00 0.00 0.00 91 1017.8
20190324081246 64 150 2.0 6.0 0.00 0.00 0.00 91 1017.8
20190324081140 64 138 2.0 8.0 0.00 0.00 0.00 91 1017.8
20190324081053 64 142 2.0 8.0 0.00 0.00 0.00 91 1017.8
20190324080942 64 162 3.0 8.0 0.00 0.00 0.00 91 1017.9
20190324080855 64 163 2.0 8.0 0.00 0.00 0.00 91 1017.9
20190324080749 64 160 2.0 8.0 0.00 0.00 0.00 91 1017.9
20190324080647 64 136 2.0 8.0 0.00 0.00 0.00 91 1017.9
20190324080539 64 141 3.0 8.0 0.00 0.00 0.00 91 1017.9
20190324080448 64 154 4.0 8.0 0.00 0.00 0.00 91 1017.9
20190324080342 64 151 4.0 8.0 0.00 0.00 0.00 91 1017.8
20190324080255 64 229 3.0 7.0 0.00 0.00 0.00 91 1017.8
20190324080149 64 212 3.0 7.0 0.00 0.00 0.00 91 1017.9
20190324080042 64 160 4.0 7.0 0.00 0.00 0.00 91 1017.9
20190324080002 64 164 4.0 7.0 0.00 0.00 0.00 91 1017.9
20190324075838 64 143 2.0 7.0 0.00 0.00 0.00 91 1017.8
20190324075751 64 127 2.0 7.0 0.00 0.00 0.00 91 1017.8
20190324075645 64 162 3.0 7.0 0.00 0.00 0.00 91 1017.9
20190324075446 64 204 3.0 9.0 0.00 0.00 0.00 90 1017.9
20190324075339 64 162 3.0 9.0 0.00 0.00 0.00 90 1017.9
20190324075252 64 236 3.0 9.0 0.00 0.00 0.00 90 1017.9
20190324075148 64 159 4.0 9.0 0.00 0.00 0.00 90 1017.9
20190324075044 64 155 4.0 9.0 0.00 0.00 0.00 90 1017.9
20190324074953 64 116 4.0 9.0 0.00 0.00 0.00 90 1017.9
20190324074846 64 136 4.0 9.0 0.00 0.00 0.00 90 1017.9
20190324074739 64 120 4.0 9.0 0.00 0.00 0.00 90 1017.9
20190324074652 64 151 4.0 9.0 0.00 0.00 0.00 90 1017.9
20190324074545 64 157 4.0 9.0 0.00 0.00 0.00 90 1017.9
20190324074453 64 212 5.0 9.0 0.00 0.00 0.00 90 1017.9
20190324074346 64 177 5.0 9.0 0.00 0.00 0.00 90 1017.8
20190324074242 64 156 3.0 9.0 0.00 0.00 0.00 90 1017.8
20190324074155 64 179 3.0 9.0 0.00 0.00 0.00 90 1017.8
20190324074047 64 150 4.0 9.0 0.00 0.00 0.00 90 1017.8
20190324073954 64 126 5.0 9.0 0.00 0.00 0.00 90 1017.8
20190324073847 64 155 5.0 9.0 0.00 0.00 0.00 90 1017.8
20190324073740 64 176 3.0 9.0 0.00 0.00 0.00 90 1017.8
20190324073656 64 129 4.0 9.0 0.00 0.00 0.00 90 1017.8
20190324073606 64 153 4.0 9.0 0.00 0.00 0.00 90 1017.9
20190324073453 64 125 4.0 9.0 0.00 0.00 0.00 90 1017.9
20190324073349 64 137 3.0 9.0 0.00 0.00 0.00 90 1017.9
20190324073241 64 176 4.0 9.0 0.00 0.00 0.00 90 1018.0
20190324073153 64 156 3.0 9.0 0.00 0.00 0.00 90 1018.0
20190324073045 64 139 3.0 9.0 0.00 0.00 0.00 90 1018.0
20190324072952 64 217 4.0 9.0 0.00 0.00 0.00 90 1017.9
20190324072845 64 150 3.0 7.0 0.00 0.00 0.00 90 1018.0
20190324072738 64 211 3.0 7.0 0.00 0.00 0.00 90 1018.0
20190324072651 64 171 4.0 7.0 0.00 0.00 0.00 90 1018.0
20190324072549 64 150 4.0 7.0 0.00 0.00 0.00 90 1018.1
20190324072455 64 152 3.0 7.0 0.00 0.00 0.00 90 1018.1
20190324072348 64 153 2.0 7.0 0.00 0.00 0.00 90 1018.0
20190324072242 64 157 3.0 7.0 0.00 0.00 0.00 90 1018.0
20190324072157 64 149 4.0 7.0 0.00 0.00 0.00 90 1018.0
20190324072050 64 143 4.0 7.0 0.00 0.00 0.00 90 1018.0
20190324071939 64 155 2.0 8.0 0.00 0.00 0.00 90 1017.9
20190324071852 64 142 2.0 8.0 0.00 0.00 0.00 90 1017.9
20190324071750 64 136 3.0 8.0 0.00 0.00 0.00 90 1018.0
20190324071644 64 166 2.0 8.0 0.00 0.00 0.00 90 1018.0
20190324071556 64 153 2.0 8.0 0.00 0.00 0.00 90 1018.0
20190324071445 64 194 3.0 8.0 0.00 0.00 0.00 90 1018.0
20190324071338 64 158 3.0 8.0 0.00 0.00 0.00 90 1018.1
20190324071252 64 146 4.0 8.0 0.00 0.00 0.00 90 1018.1
20190324071145 64 146 3.0 9.0 0.00 0.00 0.00 90 1018.1
20190324071042 64 159 2.0 9.0 0.00 0.00 0.00 90 1018.1
20190324070951 64 155 3.0 9.0 0.00 0.00 0.00 90 1018.1
20190324070845 64 200 4.0 9.0 0.00 0.00 0.00 90 1018.1
20190324070739 64 143 4.0 9.0 0.00 0.00 0.00 90 1018.1
20190324070653 64 167 3.0 9.0 0.00 0.00 0.00 90 1018.1
20190324070545 64 129 3.0 9.0 0.00 0.00 0.00 90 1018.1
20190324070453 64 148 4.0 9.0 0.00 0.00 0.00 90 1018.1
20190324070346 64 150 4.0 9.0 0.00 0.00 0.00 90 1018.1
20190324070245 64 155 4.0 9.0 0.00 0.00 0.00 90 1018.0
20190324070138 64 137 4.0 9.0 0.00 0.00 0.00 90 1018.0
20190324070051 64 208 4.0 9.0 0.00 0.00 0.00 90 1018.0
20190324070010 64 150 4.0 9.0 0.00 0.00 0.00 90 1018.0
20190324065843 64 164 4.0 9.0 0.00 0.00 0.00 90 1018.0
20190324065753 64 150 3.0 8.0 0.00 0.00 0.00 90 1018.0
20190324065647 64 150 3.0 9.0 0.00 0.00 0.00 90 1018.0
20190324065541 64 158 3.0 9.0 0.00 0.00 0.00 90 1018.1
20190324065450 64 160 2.0 9.0 0.00 0.00 0.00 90 1018.1
20190324065348 64 191 3.0 9.0 0.00 0.00 0.00 90 1018.1
20190324065242 64 124 3.0 9.0 0.00 0.00 0.00 90 1018.1
20190324065157 64 132 3.0 9.0 0.00 0.00 0.00 90 1018.1
20190324065048 64 176 5.0 9.0 0.00 0.00 0.00 90 1018.0
20190324064956 64 150 4.0 9.0 0.00 0.00 0.00 90 1018.1
20190324064849 64 155 3.0 9.0 0.00 0.00 0.00 90 1018.1
20190324064743 64 161 3.0 9.0 0.00 0.00 0.00 90 1018.1
20190324064639 64 171 4.0 9.0 0.00 0.00 0.00 90 1018.1
20190324064552 64 144 5.0 9.0 0.00 0.00 0.00 90 1018.1
20190324064441 64 165 4.0 9.0 0.00 0.00 0.00 90 1018.0
20190324064354 64 129 3.0 7.0 0.00 0.00 0.00 90 1018.0
20190324064249 64 143 3.0 7.0 0.00 0.00 0.00 90 1018.0
20190324064142 64 155 4.0 7.0 0.00 0.00 0.00 90 1018.1
20190324064055 64 144 4.0 7.0 0.00 0.00 0.00 90 1018.1
20190324063944 64 160 4.0 6.0 0.00 0.00 0.00 90 1018.1
20190324063841 64 153 3.0 6.0 0.00 0.00 0.00 90 1018.1
20190324063753 64 170 3.0 6.0 0.00 0.00 0.00 90 1018.1
20190324063648 64 158 3.0 7.0 0.00 0.00 0.00 90 1018.1
20190324063538 64 167 3.0 7.0 0.00 0.00 0.00 90 1018.1
20190324063446 64 172 3.0 7.0 0.00 0.00 0.00 90 1018.1
20190324063338 64 138 3.0 8.0 0.00 0.00 0.00 90 1018.1
20190324063250 64 197 2.0 8.0 0.00 0.00 0.00 90 1018.1
20190324063142 64 176 3.0 9.0 0.00 0.00 0.00 90 1018.1
20190324063038 64 212 4.0 9.0 0.00 0.00 0.00 90 1018.1
20190324062945 64 155 5.0 9.0 0.00 0.00 0.00 90 1018.1
20190324062857 64 167 5.0 9.0 0.00 0.00 0.00 90 1018.1
20190324062750 64 150 4.0 9.0 0.00 0.00 0.00 90 1018.1
20190324062644 64 147 3.0 9.0 0.00 0.00 0.00 90 1018.1
20190324062555 64 160 4.0 9.0 0.00 0.00 0.00 90 1018.2
20190324062443 64 138 5.0 9.0 0.00 0.00 0.00 90 1018.2
20190324062355 64 117 4.0 8.0 0.00 0.00 0.00 90 1018.2
20190324062247 64 129 4.0 8.0 0.00 0.00 0.00 90 1018.2
20190324062144 64 145 4.0 8.0 0.00 0.00 0.00 90 1018.3
20190324062054 64 148 4.0 8.0 0.00 0.00 0.00 90 1018.3
20190324061942 64 146 3.0 9.0 0.00 0.00 0.00 90 1018.3
20190324061854 64 149 3.0 9.0 0.00 0.00 0.00 90 1018.3
20190324061746 64 167 4.0 9.0 0.00 0.00 0.00 90 1018.2
20190324061639 64 199 3.0 9.0 0.00 0.00 0.00 90 1018.2
20190324061551 64 178 3.0 9.0 0.00 0.00 0.00 90 1018.2
20190324061439 64 181 3.0 9.0 0.00 0.00 0.00 90 1018.2
20190324061355 64 167 2.0 9.0 0.00 0.00 0.00 90 1018.2
20190324061247 64 165 4.0 9.0 0.00 0.00 0.00 90 1018.2
20190324061140 64 148 4.0 9.0 0.00 0.00 0.00 90 1018.2
20190324061052 64 148 3.0 9.0 0.00 0.00 0.00 90 1018.2
20190324060939 64 127 3.0 9.0 0.00 0.00 0.00 90 1018.2
20190324060851 64 153 4.0 9.0 0.00 0.00 0.00 90 1018.2
20190324060744 64 122 5.0 9.0 0.00 0.00 0.00 90 1018.2
20190324060659 64 169 5.0 9.0 0.00 0.00 0.00 90 1018.2
20190324060554 64 150 4.0 8.0 0.00 0.00 0.00 90 1018.2
20190324060442 64 146 4.0 8.0 0.00 0.00 0.00 91 1018.2
20190324060355 64 163 4.0 8.0 0.00 0.00 0.00 91 1018.2
20190324060248 64 117 4.0 8.0 0.00 0.00 0.00 90 1018.2
20190324060140 64 172 2.0 8.0 0.00 0.00 0.00 90 1018.2
20190324060053 64 150 3.0 8.0 0.00 0.00 0.00 90 1018.2
20190324060016 64 150 3.0 8.0 0.00 0.00 0.00 90 1018.2
20190324055848 64 177 3.0 10.0 0.00 0.00 0.00 90 1018.2
20190324055744 64 151 3.0 10.0 0.00 0.00 0.00 90 1018.2
20190324055656 64 161 4.0 10.0 0.00 0.00 0.00 90 1018.2
20190324055548 64 159 4.0 10.0 0.00 0.00 0.00 90 1018.2
20190324055456 64 131 4.0 10.0 0.00 0.00 0.00 90 1018.2
20190324055349 64 143 3.0 10.0 0.00 0.00 0.00 90 1018.1
20190324055242 64 127 3.0 10.0 0.00 0.00 0.00 90 1018.2
20190324055156 64 158 4.0 10.0 0.00 0.00 0.00 90 1018.2
20190324055046 64 156 3.0 10.0 0.00 0.00 0.00 90 1018.2
20190324054953 64 144 2.0 9.0 0.00 0.00 0.00 90 1018.2
20190324054849 64 141 3.0 9.0 0.00 0.00 0.00 90 1018.2
20190324054742 64 161 3.0 9.0 0.00 0.00 0.00 90 1018.2
20190324054655 64 227 3.0 9.0 0.00 0.00 0.00 90 1018.2
20190324054548 64 174 3.0 8.0 0.00 0.00 0.00 90 1018.2
20190324054455 64 149 3.0 8.0 0.00 0.00 0.00 90 1018.2
20190324054348 64 151 3.0 8.0 0.00 0.00 0.00 90 1018.2
20190324054241 64 151 3.0 9.0 0.00 0.00 0.00 90 1018.2
20190324054152 64 155 3.0 10.0 0.00 0.00 0.00 90 1018.2
20190324054048 64 138 2.0 10.0 0.00 0.00 0.00 90 1018.2
20190324053956 64 147 3.0 10.0 0.00 0.00 0.00 90 1018.2
20190324053850 64 214 4.0 10.0 0.00 0.00 0.00 90 1018.2
20190324053742 64 146 4.0 10.0 0.00 0.00 0.00 90 1018.2
20190324053656 64 148 3.0 10.0 0.00 0.00 0.00 90 1018.2
20190324053546 64 139 4.0 10.0 0.00 0.00 0.00 90 1018.1
20190324053454 64 127 5.0 10.0 0.00 0.00 0.00 90 1018.1
20190324053346 64 159 4.0 9.0 0.00 0.00 0.00 90 1018.2
20190324053243 64 152 3.0 8.0 0.00 0.00 0.00 90 1018.1
20190324053155 64 157 3.0 7.0 0.00 0.00 0.00 90 1018.1
20190324053047 64 141 3.0 7.0 0.00 0.00 0.00 90 1018.1
20190324052955 64 149 3.0 8.0 0.00 0.00 0.00 90 1018.1
20190324052847 64 157 3.0 8.0 0.00 0.00 0.00 90 1018.1
20190324052739 64 134 3.0 8.0 0.00 0.00 0.00 90 1018.0
20190324052652 64 155 3.0 9.0 0.00 0.00 0.00 90 1018.0
20190324052544 64 136 3.0 9.0 0.00 0.00 0.00 90 1018.0
20190324052455 64 137 3.0 9.0 0.00 0.00 0.00 90 1018.0
20190324052347 64 131 3.0 9.0 0.00 0.00 0.00 90 1017.9
20190324052239 64 158 4.0 9.0 0.00 0.00 0.00 90 1017.9
20190324052153 64 145 4.0 9.0 0.00 0.00 0.00 90 1017.9
20190324052043 64 139 3.0 9.0 0.00 0.00 0.00 90 1017.9
20190324051949 64 162 4.0 11.0 0.00 0.00 0.00 90 1017.8
20190324051842 64 205 5.0 11.0 0.00 0.00 0.00 90 1017.9
20190324051753 64 164 4.0 11.0 0.00 0.00 0.00 90 1017.9
20190324051650 64 183 5.0 11.0 0.00 0.00 0.00 90 1017.8
20190324051542 64 200 4.0 12.0 0.00 0.00 0.00 90 1017.8
20190324051448 64 151 3.0 12.0 0.00 0.00 0.00 90 1017.8
20190324051340 64 127 3.0 12.0 0.00 0.00 0.00 90 1017.8
20190324051253 64 155 4.0 12.0 0.00 0.00 0.00 90 1017.8
20190324051145 64 173 4.0 12.0 0.00 0.00 0.00 90 1017.8
20190324051038 64 194 4.0 12.0 0.00 0.00 0.00 90 1017.7
20190324050945 64 148 6.0 12.0 0.00 0.00 0.00 90 1017.7
20190324050841 64 143 5.0 12.0 0.00 0.00 0.00 90 1017.7
20190324050755 64 188 4.0 11.0 0.00 0.00 0.00 90 1017.7
20190324050646 64 155 6.0 11.0 0.00 0.00 0.00 90 1017.7
20190324050555 64 162 6.0 11.0 0.00 0.00 0.00 90 1017.7
20190324050443 64 181 5.0 10.0 0.00 0.00 0.00 90 1017.7
20190324050355 64 134 5.0 10.0 0.00 0.00 0.00 90 1017.7
20190324050247 64 175 5.0 10.0 0.00 0.00 0.00 90 1017.7
20190324050138 64 164 4.0 10.0 0.00 0.00 0.00 90 1017.7
20190324050051 64 128 3.0 11.0 0.00 0.00 0.00 90 1017.7
20190324050013 64 206 4.0 14.0 0.00 0.00 0.00 90 1017.7
20190324045838 64 137 4.0 14.0 0.00 0.00 0.00 90 1017.7
20190324045751 64 202 3.0 14.0 0.00 0.00 0.00 90 1017.7
20190324045642 64 151 4.0 14.0 0.00 0.00 0.00 90 1017.7
20190324045554 64 151 5.0 14.0 0.00 0.00 0.00 90 1017.7
20190324045441 64 104 5.0 14.0 0.00 0.00 0.00 90 1017.6
20190324045353 64 169 5.0 14.0 0.00 0.00 0.00 90 1017.6
20190324045248 64 153 7.0 14.0 0.00 0.00 0.00 90 1017.6
20190324045142 64 181 5.0 14.0 0.00 0.00 0.00 90 1017.6
20190324045053 64 153 4.0 11.0 0.00 0.00 0.00 90 1017.6
20190324044941 64 156 4.0 11.0 0.00 0.00 0.00 90 1017.6
20190324044853 64 184 4.0 11.0 0.00 0.00 0.00 90 1017.6
20190324044745 64 196 4.0 11.0 0.00 0.00 0.00 90 1017.7
20190324044639 64 152 5.0 11.0 0.00 0.00 0.00 90 1017.7
20190324044551 65 166 5.0 11.0 0.00 0.00 0.00 90 1017.7
20190324044438 65 155 5.0 11.0 0.00 0.00 0.00 90 1017.7
20190324044351 65 206 5.0 11.0 0.00 0.00 0.00 90 1017.7
20190324044248 65 175 6.0 11.0 0.00 0.00 0.00 90 1017.7
20190324044140 65 155 4.0 10.0 0.00 0.00 0.00 90 1017.7
20190324044053 65 144 3.0 9.0 0.00 0.00 0.00 90 1017.7
20190324043941 65 155 4.0 9.0 0.00 0.00 0.00 90 1017.8
20190324043854 65 111 5.0 9.0 0.00 0.00 0.00 90 1017.8
20190324043749 65 133 4.0 11.0 0.00 0.00 0.00 90 1017.8
20190324043639 65 140 2.0 11.0 0.00 0.00 0.00 90 1017.9
20190324043551 65 186 3.0 11.0 0.00 0.00 0.00 90 1017.9
20190324043503 65 206 4.0 11.0 0.00 0.00 0.00 90 1017.9
20190324043346 65 120 4.0 11.0 0.00 0.00 0.00 90 1017.9
20190324043257 65 113 4.0 11.0 0.00 0.00 0.00 90 1017.9
20190324043149 65 158 4.0 11.0 0.00 0.00 0.00 90 1017.9
20190324043041 65 189 4.0 11.0 0.00 0.00 0.00 90 1018.0
20190324042948 65 166 4.0 11.0 0.00 0.00 0.00 90 1018.0
20190324042840 65 160 3.0 9.0 0.00 0.00 0.00 89 1017.9
20190324042752 65 156 3.0 9.0 0.00 0.00 0.00 90 1017.9
20190324042648 65 136 3.0 9.0 0.00 0.00 0.00 89 1018.0
20190324042540 65 174 4.0 9.0 0.00 0.00 0.00 89 1018.0
20190324042447 65 127 4.0 9.0 0.00 0.00 0.00 89 1018.0
20190324042339 65 146 3.0 8.0 0.00 0.00 0.00 89 1018.1
20190324042253 65 139 3.0 8.0 0.00 0.00 0.00 89 1018.1
20190324042142 65 162 3.0 8.0 0.00 0.00 0.00 89 1018.1
20190324042054 65 158 3.0 8.0 0.00 0.00 0.00 89 1018.1
20190324041941 65 159 3.0 11.0 0.00 0.00 0.00 89 1018.1
20190324041838 65 174 3.0 11.0 0.00 0.00 0.00 89 1018.1
20190324041751 65 142 3.0 11.0 0.00 0.00 0.00 89 1018.1
20190324041644 65 162 3.0 11.0 0.00 0.00 0.00 89 1018.1
20190324041555 65 146 5.0 11.0 0.00 0.00 0.00 89 1018.1
20190324041442 65 131 5.0 11.0 0.00 0.00 0.00 89 1018.2
20190324041355 65 159 4.0 11.0 0.00 0.00 0.00 89 1018.2
20190324041248 65 131 5.0 11.0 0.00 0.00 0.00 89 1018.2
20190324041141 65 142 4.0 9.0 0.00 0.00 0.00 89 1018.2
20190324041038 65 162 4.0 9.0 0.00 0.00 0.00 89 1018.2
20190324040946 65 143 4.0 9.0 0.00 0.00 0.00 89 1018.2
20190324040838 65 142 4.0 9.0 0.00 0.00 0.00 89 1018.3
20190324040751 65 136 3.0 9.0 0.00 0.00 0.00 89 1018.3
20190324040642 65 148 4.0 9.0 0.00 0.00 0.00 89 1018.2
20190324040553 65 155 4.0 9.0 0.00 0.00 0.00 89 1018.2
20190324040440 65 188 5.0 9.0 0.00 0.00 0.00 89 1018.2
20190324040353 65 145 4.0 9.0 0.00 0.00 0.00 89 1018.2
20190324040246 65 171 3.0 9.0 0.00 0.00 0.00 89 1018.2
20190324040141 65 132 5.0 9.0 0.00 0.00 0.00 89 1018.2
20190324040053 65 149 5.0 8.0 0.00 0.00 0.00 89 1018.2
20190324040017 65 113 4.0 8.0 0.00 0.00 0.00 89 1018.2
20190324035849 65 151 4.0 8.0 0.00 0.00 0.00 89 1018.2
20190324035741 65 171 4.0 8.0 0.00 0.00 0.00 89 1018.2
20190324035654 65 193 4.0 8.0 0.00 0.00 0.00 89 1018.2
20190324035546 65 138 4.0 8.0 0.00 0.00 0.00 89 1018.2
20190324035453 65 126 3.0 8.0 0.00 0.00 0.00 89 1018.2
20190324035349 65 177 3.0 8.0 0.00 0.00 0.00 89 1018.2
20190324035241 65 174 3.0 8.0 0.00 0.00 0.00 89 1018.2
20190324035155 65 167 3.0 7.0 0.00 0.00 0.00 89 1018.2
20190324035046 65 154 3.0 7.0 0.00 0.00 0.00 89 1018.1
20190324034953 65 149 3.0 7.0 0.00 0.00 0.00 89 1018.2
20190324034846 65 158 3.0 7.0 0.00 0.00 0.00 89 1018.2
20190324034738 65 132 3.0 7.0 0.00 0.00 0.00 89 1018.2
20190324034650 65 84 3.0 6.0 0.00 0.00 0.00 89 1018.2
20190324034545 65 155 3.0 8.0 0.00 0.00 0.00 89 1018.2
20190324034453 65 148 2.0 8.0 0.00 0.00 0.00 89 1018.2
20190324034345 65 213 2.0 8.0 0.00 0.00 0.00 88 1018.2
20190324034238 65 153 2.0 8.0 0.00 0.00 0.00 88 1018.2
20190324034151 65 152 3.0 8.0 0.00 0.00 0.00 88 1018.2
20190324034043 65 154 2.0 8.0 0.00 0.00 0.00 88 1018.3
20190324033950 65 160 2.0 8.0 0.00 0.00 0.00 88 1018.3
20190324033842 65 146 3.0 8.0 0.00 0.00 0.00 88 1018.3
20190324033738 65 158 3.0 8.0 0.00 0.00 0.00 88 1018.3
20190324033652 65 148 3.0 7.0 0.00 0.00 0.00 88 1018.3
20190324033543 65 145 4.0 8.0 0.00 0.00 0.00 88 1018.3
20190324033449 65 159 4.0 8.0 0.00 0.00 0.00 88 1018.3
20190324033341 65 150 3.0 8.0 0.00 0.00 0.00 88 1018.3
20190324033254 65 169 2.0 8.0 0.00 0.00 0.00 88 1018.3
20190324033146 65 214 2.0 8.0 0.00 0.00 0.00 88 1018.3
20190324033039 65 166 2.0 8.0 0.00 0.00 0.00 88 1018.2
20190324032946 65 172 4.0 8.0 0.00 0.00 0.00 88 1018.2
20190324032842 65 154 4.0 8.0 0.00 0.00 0.00 88 1018.1
20190324032755 65 143 4.0 8.0 0.00 0.00 0.00 88 1018.1
20190324032648 65 167 3.0 8.0 0.00 0.00 0.00 88 1018.1
20190324032541 65 206 2.0 7.0 0.00 0.00 0.00 88 1018.1
20190324032447 65 146 3.0 7.0 0.00 0.00 0.00 88 1018.1
20190324032339 65 162 4.0 7.0 0.00 0.00 0.00 88 1018.1
20190324032252 65 93 4.0 7.0 0.00 0.00 0.00 87 1018.1
20190324032142 65 181 3.0 7.0 0.00 0.00 0.00 87 1018.2
20190324032039 65 148 3.0 8.0 0.00 0.00 0.00 87 1018.1
20190324031946 65 155 3.0 8.0 0.00 0.00 0.00 87 1018.1
20190324031839 65 124 3.0 8.0 0.00 0.00 0.00 87 1018.0
20190324031751 65 181 3.0 8.0 0.00 0.00 0.00 87 1018.0
20190324031640 65 201 3.0 8.0 0.00 0.00 0.00 87 1018.0
20190324031553 65 152 3.0 8.0 0.00 0.00 0.00 87 1018.0
20190324031440 65 153 3.0 8.0 0.00 0.00 0.00 87 1018.0
20190324031352 65 165 3.0 8.0 0.00 0.00 0.00 87 1018.0
20190324031248 65 176 3.0 8.0 0.00 0.00 0.00 87 1018.0
20190324031140 65 138 3.0 8.0 0.00 0.00 0.00 87 1018.0
20190324031052 65 148 3.0 8.0 0.00 0.00 0.00 87 1018.0
20190324030939 65 150 4.0 12.0 0.00 0.00 0.00 87 1017.9
20190324030851 65 175 4.0 12.0 0.00 0.00 0.00 87 1017.9
20190324030743 65 180 3.0 12.0 0.00 0.00 0.00 87 1017.9
20190324030656 65 153 4.0 12.0 0.00 0.00 0.00 87 1017.9
20190324030547 65 176 3.0 12.0 0.00 0.00 0.00 87 1017.9
20190324030438 65 123 3.0 12.0 0.00 0.00 0.00 87 1017.8
20190324030350 65 177 4.0 12.0 0.00 0.00 0.00 87 1017.8
20190324030242 65 137 5.0 12.0 0.00 0.00 0.00 87 1017.8
20190324030154 65 205 5.0 12.0 0.00 0.00 0.00 87 1017.8
20190324030046 65 143 4.0 10.0 0.00 0.00 0.00 87 1017.8
20190324030004 65 122 4.0 11.0 0.00 0.00 0.00 87 1017.8
20190324025856 65 140 5.0 11.0 0.00 0.00 0.00 87 1017.8
20190324025748 65 148 5.0 11.0 0.00 0.00 0.00 87 1017.8
20190324025640 65 180 5.0 11.0 0.00 0.00 0.00 88 1017.7
20190324025556 65 113 5.0 11.0 0.00 0.00 0.00 88 1017.7
20190324025443 65 139 5.0 11.0 0.00 0.00 0.00 88 1017.7
20190324025355 65 117 5.0 11.0 0.00 0.00 0.00 88 1017.7
20190324025248 65 154 5.0 11.0 0.00 0.00 0.00 88 1017.6
20190324025139 65 169 4.0 11.0 0.00 0.00 0.00 88 1017.6
20190324025051 65 136 3.0 9.0 0.00 0.00 0.00 88 1017.6
20190324024938 65 151 4.0 9.0 0.00 0.00 0.00 88 1017.7
20190324024851 65 149 3.0 9.0 0.00 0.00 0.00 88 1017.7
20190324024748 65 221 3.0 9.0 0.00 0.00 0.00 88 1017.8
20190324024640 65 148 4.0 9.0 0.00 0.00 0.00 88 1017.7
20190324024552 65 138 4.0 9.0 0.00 0.00 0.00 88 1017.7
20190324024440 65 142 4.0 8.0 0.00 0.00 0.00 88 1017.7
20190324024353 65 195 3.0 8.0 0.00 0.00 0.00 88 1017.7
20190324024245 65 181 3.0 8.0 0.00 0.00 0.00 89 1017.6
20190324024138 65 184 3.0 8.0 0.00 0.00 0.00 89 1017.6
20190324024050 65 143 3.0 8.0 0.00 0.00 0.00 89 1017.6
20190324023941 65 158 3.0 8.0 0.00 0.00 0.00 89 1017.7
20190324023853 65 94 4.0 8.0 0.00 0.00 0.00 89 1017.7
20190324023748 65 143 4.0 8.0 0.00 0.00 0.00 89 1017.7
20190324023638 65 177 5.0 8.0 0.00 0.00 0.00 89 1017.7
20190324023550 65 159 4.0 8.0 0.00 0.00 0.00 89 1017.7
20190324023457 65 141 4.0 8.0 0.00 0.00 0.00 89 1017.8
20190324023349 64 136 4.0 7.0 0.00 0.00 0.00 89 1017.9
20190324023241 64 143 3.0 7.0 0.00 0.00 0.00 89 1017.9
20190324023153 64 341 3.0 7.0 0.00 0.00 0.00 89 1017.9
20190324023050 64 153 4.0 7.0 0.00 0.00 0.00 89 1017.9
20190324022957 64 156 3.0 7.0 0.00 0.00 0.00 90 1017.9
20190324022850 64 134 4.0 7.0 0.00 0.00 0.00 90 1017.9
20190324022741 64 162 3.0 7.0 0.00 0.00 0.00 90 1017.9
20190324022654 64 178 2.0 6.0 0.00 0.00 0.00 90 1017.9
20190324022546 64 150 2.0 6.0 0.00 0.00 0.00 90 1017.9
20190324022454 64 150 3.0 6.0 0.00 0.00 0.00 90 1017.8
20190324022346 64 157 3.0 6.0 0.00 0.00 0.00 90 1017.8
20190324022241 64 172 2.0 6.0 0.00 0.00 0.00 90 1017.8
20190324022154 64 143 2.0 7.0 0.00 0.00 0.00 90 1017.8
20190324022045 64 180 2.0 7.0 0.00 0.00 0.00 90 1017.9
20190324021953 64 108 3.0 7.0 0.00 0.00 0.00 90 1017.9
20190324021845 64 151 2.0 7.0 0.00 0.00 0.00 90 1017.9
20190324021757 64 158 2.0 7.0 0.00 0.00 0.00 90 1017.9
20190324021649 64 142 2.0 7.0 0.00 0.00 0.00 90 1017.9
20190324021542 64 162 2.0 7.0 0.00 0.00 0.00 90 1018.0
20190324021454 64 156 2.0 7.0 0.00 0.00 0.00 90 1018.0
20190324021348 64 146 2.0 7.0 0.00 0.00 0.00 90 1017.9
20190324021242 64 134 2.0 7.0 0.00 0.00 0.00 90 1018.0
20190324021155 64 148 2.0 7.0 0.00 0.00 0.00 90 1018.0
20190324021047 64 142 2.0 7.0 0.00 0.00 0.00 90 1018.0
20190324020954 64 155 3.0 7.0 0.00 0.00 0.00 90 1018.1
20190324020848 64 155 3.0 7.0 0.00 0.00 0.00 90 1018.0
20190324020744 64 137 2.0 5.0 0.00 0.00 0.00 90 1018.1
20190324020639 64 134 1.0 5.0 0.00 0.00 0.00 90 1018.1
20190324020551 64 157 1.0 5.0 0.00 0.00 0.00 91 1018.1
20190324020439 64 162 1.0 5.0 0.00 0.00 0.00 91 1018.1
20190324020352 64 151 2.0 5.0 0.00 0.00 0.00 91 1018.1
20190324020246 64 160 1.0 5.0 0.00 0.00 0.00 91 1018.1
20190324020140 64 153 2.0 5.0 0.00 0.00 0.00 91 1018.1
20190324020054 64 174 2.0 5.0 0.00 0.00 0.00 91 1018.1
20190324020012 64 159 2.0 5.0 0.00 0.00 0.00 91 1018.1
20190324015847 64 150 2.0 5.0 0.00 0.00 0.00 91 1018.1
20190324015740 64 183 1.0 5.0 0.00 0.00 0.00 91 1018.1
20190324015653 64 145 2.0 6.0 0.00 0.00 0.00 91 1018.1
20190324015546 64 144 2.0 6.0 0.00 0.00 0.00 91 1018.1
20190324015453 64 144 2.0 6.0 0.00 0.00 0.00 91 1018.1
20190324015345 64 165 2.0 6.0 0.00 0.00 0.00 91 1018.1
20190324015238 64 161 2.0 6.0 0.00 0.00 0.00 91 1018.0
20190324015152 64 148 2.0 6.0 0.00 0.00 0.00 91 1018.0
20190324015048 64 155 1.0 6.0 0.00 0.00 0.00 91 1018.0
20190324014955 64 123 1.0 6.0 0.00 0.00 0.00 91 1018.0
20190324014847 64 152 2.0 6.0 0.00 0.00 0.00 91 1017.9
20190324014740 64 159 1.0 6.0 0.00 0.00 0.00 91 1017.9
20190324014654 64 137 1.0 4.0 0.00 0.00 0.00 91 1017.9
20190324014546 64 144 1.0 4.0 0.00 0.00 0.00 91 1018.0
20190324014453 64 144 2.0 4.0 0.00 0.00 0.00 91 1018.0
20190324014346 64 134 2.0 4.0 0.00 0.00 0.00 91 1017.9
20190324014241 64 163 1.0 3.0 0.00 0.00 0.00 91 1017.9
20190324014153 64 142 1.0 3.0 0.00 0.00 0.00 91 1017.9
20190324014046 64 155 1.0 4.0 0.00 0.00 0.00 91 1017.9
20190324013954 64 127 1.0 4.0 0.00 0.00 0.00 91 1017.8
20190324013846 64 134 0.0 4.0 0.00 0.00 0.00 91 1017.8
20190324013738 64 155 1.0 4.0 0.00 0.00 0.00 91 1017.8
20190324013651 64 145 1.0 4.0 0.00 0.00 0.00 91 1017.8
20190324013541 64 153 1.0 4.0 0.00 0.00 0.00 91 1017.8
20190324013448 64 150 1.0 4.0 0.00 0.00 0.00 91 1017.8
20190324013343 64 150 2.0 4.0 0.00 0.00 0.00 91 1017.8
20190324013255 64 156 2.0 4.0 0.00 0.00 0.00 90 1017.8
20190324013147 64 150 2.0 4.0 0.00 0.00 0.00 90 1017.9
20190324013039 64 143 1.0 4.0 0.00 0.00 0.00 90 1018.0
20190324012947 64 149 1.0 4.0 0.00 0.00 0.00 90 1018.0
20190324012839 64 149 1.0 4.0 0.00 0.00 0.00 90 1018.0
20190324012751 64 149 1.0 4.0 0.00 0.00 0.00 90 1018.0
20190324012643 64 155 1.0 4.0 0.00 0.00 0.00 90 1018.0
20190324012600 65 138 1.0 4.0 0.00 0.00 0.00 90 1018.0
20190324012513 65 136 1.0 4.0 0.00 0.00 0.00 90 1017.9
20190324012420 65 173 1.0 4.0 0.00 0.00 0.00 89 1018.0
20190324012335 65 150 2.0 4.0 0.00 0.00 0.00 89 1017.9
20190324012141 65 143 1.0 5.0 0.00 0.00 0.00 89 1018.0
20190324012053 65 151 1.0 5.0 0.00 0.00 0.00 89 1018.0
20190324011940 65 150 1.0 5.0 0.00 0.00 0.00 89 1018.0
20190324011853 65 150 1.0 5.0 0.00 0.00 0.00 89 1018.0
20190324011745 65 162 0.0 5.0 0.00 0.00 0.00 88 1018.0
20190324011641 65 169 1.0 5.0 0.00 0.00 0.00 88 1017.9
20190324011554 65 169 2.0 5.0 0.00 0.00 0.00 88 1017.9
20190324011441 65 156 2.0 5.0 0.00 0.00 0.00 88 1017.9
20190324011353 65 165 2.0 5.0 0.00 0.00 0.00 88 1017.9
20190324011246 65 162 2.0 6.0 0.00 0.00 0.00 87 1017.9
20190324011138 65 155 2.0 6.0 0.00 0.00 0.00 87 1017.9
20190324011051 65 155 1.0 6.0 0.00 0.00 0.00 87 1017.9
20190324010939 65 156 1.0 6.0 0.00 0.00 0.00 87 1017.9
20190324010851 66 160 1.0 6.0 0.00 0.00 0.00 86 1017.9
20190324010748 66 150 1.0 6.0 0.00 0.00 0.00 86 1017.8
20190324010639 66 150 2.0 7.0 0.00 0.00 0.00 86 1017.7
20190324010551 66 162 3.0 7.0 0.00 0.00 0.00 86 1017.7
20190324010439 66 159 3.0 7.0 0.00 0.00 0.00 85 1017.7
20190324010351 66 167 2.0 8.0 0.00 0.00 0.00 85 1017.7
20190324010243 66 156 2.0 8.0 0.00 0.00 0.00 85 1017.7
20190324010155 66 149 3.0 8.0 0.00 0.00 0.00 85 1017.7
20190324010047 66 154 3.0 8.0 0.00 0.00 0.00 85 1017.7
20190324010014 66 167 3.0 8.0 0.00 0.00 0.00 85 1017.7
20190324005846 66 146 4.0 8.0 0.00 0.00 0.00 84 1017.7
20190324005738 66 209 4.0 8.0 0.00 0.00 0.00 84 1017.7
20190324005651 66 133 4.0 8.0 0.00 0.00 0.00 84 1017.7
20190324005543 66 160 4.0 8.0 0.00 0.00 0.00 84 1017.7
20190324005451 66 182 3.0 8.0 0.00 0.00 0.00 84 1017.7
20190324005343 66 224 2.0 8.0 0.00 0.00 0.00 84 1017.7
20190324005255 66 123 2.0 8.0 0.00 0.00 0.00 84 1017.7
20190324005153 66 159 4.0 8.0 0.00 0.00 0.00 83 1017.7
20190324005044 67 161 4.0 8.0 0.00 0.00 0.00 83 1017.7
20190324004951 67 164 4.0 8.0 0.00 0.00 0.00 83 1017.7
20190324004843 67 164 4.0 10.0 0.00 0.00 0.00 83 1017.7
20190324004756 67 184 3.0 12.0 0.00 0.00 0.00 83 1017.7
20190324004648 67 240 3.0 12.0 0.00 0.00 0.00 83 1017.6
20190324004541 67 144 4.0 12.0 0.00 0.00 0.00 83 1017.5
20190324004449 67 155 4.0 12.0 0.00 0.00 0.00 83 1017.5
20190324004345 67 164 4.0 12.0 0.00 0.00 0.00 83 1017.5
20190324004257 67 200 4.0 12.0 0.00 0.00 0.00 82 1017.4
20190324004150 67 157 5.0 12.0 0.00 0.00 0.00 82 1017.4
20190324004042 67 148 6.0 12.0 0.00 0.00 0.00 82 1017.4
20190324003949 67 139 5.0 12.0 0.00 0.00 0.00 82 1017.4
20190324003842 67 148 4.0 12.0 0.00 0.00 0.00 82 1017.4
20190324003755 67 166 4.0 12.0 0.00 0.00 0.00 82 1017.4
20190324003648 67 138 5.0 12.0 0.00 0.00 0.00 82 1017.3
20190324003543 67 182 5.0 12.0 0.00 0.00 0.00 82 1017.3
20190324003451 67 172 5.0 11.0 0.00 0.00 0.00 82 1017.3
20190324003344 67 173 3.0 11.0 0.00 0.00 0.00 81 1017.3
20190324003256 67 145 3.0 11.0 0.00 0.00 0.00 81 1017.3
20190324003149 67 149 4.0 11.0 0.00 0.00 0.00 81 1017.2
20190324003041 67 169 4.0 11.0 0.00 0.00 0.00 81 1017.2
20190324002948 67 169 3.0 11.0 0.00 0.00 0.00 81 1017.2
20190324002840 67 140 3.0 11.0 0.00 0.00 0.00 81 1017.1
20190324002752 67 162 3.0 11.0 0.00 0.00 0.00 81 1017.1
20190324002648 67 148 4.0 9.0 0.00 0.00 0.00 81 1017.2
20190324002541 67 146 3.0 9.0 0.00 0.00 0.00 81 1017.2
20190324002449 67 183 3.0 9.0 0.00 0.00 0.00 81 1017.2
20190324002342 67 134 3.0 9.0 0.00 0.00 0.00 81 1017.2
20190324002256 67 134 3.0 9.0 0.00 0.00 0.00 81 1017.2
20190324002150 67 200 3.0 9.0 0.00 0.00 0.00 81 1017.2
20190324002041 67 165 4.0 10.0 0.00 0.00 0.00 81 1017.2
20190324001949 67 153 3.0 10.0 0.00 0.00 0.00 80 1017.2
20190324001846 67 176 3.0 10.0 0.00 0.00 0.00 80 1017.1
20190324001738 67 134 4.0 10.0 0.00 0.00 0.00 80 1017.0
20190324001651 67 181 4.0 11.0 0.00 0.00 0.00 80 1017.0
20190324001544 67 133 3.0 11.0 0.00 0.00 0.00 80 1016.9
20190324001452 67 138 3.0 11.0 0.00 0.00 0.00 80 1016.9
20190324001343 68 167 4.0 11.0 0.00 0.00 0.00 80 1016.9
20190324001255 68 150 3.0 11.0 0.00 0.00 0.00 80 1016.9
20190324001147 68 174 4.0 11.0 0.00 0.00 0.00 80 1016.9
20190324001043 68 184 4.0 11.0 0.00 0.00 0.00 80 1016.9
20190324000950 68 124 4.0 11.0 0.00 0.00 0.00 80 1016.9
20190324000843 68 158 5.0 11.0 0.00 0.00 0.00 80 1016.9
20190324000757 68 169 4.0 10.0 0.00 0.00 0.00 80 1016.9
20190324000651 68 168 4.0 10.0 0.00 0.00 0.00 80 1016.8
20190324000542 68 167 4.0 9.0 0.00 0.00 0.00 80 1016.8
20190324000449 68 176 3.0 9.0 0.00 0.00 0.00 80 1016.8
20190324000342 68 192 3.0 9.0 0.00 0.00 0.00 79 1016.9
20190324000238 68 110 4.0 9.0 0.00 0.00 0.00 79 1016.8
20190324000150 68 61 4.0 9.0 0.00 0.00 0.00 79 1016.8
20190324000045 68 171 3.0 8.0 0.00 0.00 0.00 79 1016.8
20190324000003 68 146 3.0 7.0 0.00 0.00 0.00 79 1016.9
20190323235855 68 162 3.0 7.0 0.00 0.00 0.00 79 1016.8
20190323235747 68 164 4.0 7.0 0.00 0.00 0.00 79 1016.8
20190323235641 68 160 3.0 7.0 0.00 0.00 0.00 79 1016.9
20190323235552 68 152 3.0 7.0 0.00 0.00 0.00 79 1016.9
20190323235444 68 151 3.0 7.0 0.00 0.00 0.00 79 1016.8
20190323235357 68 148 3.0 7.0 0.00 0.00 0.00 79 1016.9
20190323235252 68 161 3.0 7.0 0.00 0.00 0.00 79 1016.9
20190323235143 68 162 3.0 8.0 0.00 0.00 0.00 79 1016.9
20190323235055 68 160 3.0 8.0 0.00 0.00 0.00 79 1016.9
20190323234941 68 193 2.0 10.0 0.00 0.00 0.00 79 1016.9
20190323234853 68 130 2.0 10.0 0.00 0.00 0.00 79 1016.9
20190323234746 68 115 3.0 10.0 0.00 0.00 0.00 79 1016.9
20190323234639 68 156 2.0 10.0 0.00 0.00 0.00 79 1016.9
20190323234556 68 174 2.0 10.0 0.00 0.00 0.00 79 1016.9
20190323234443 68 105 4.0 10.0 0.00 0.00 0.00 79 1016.9
20190323234356 68 191 4.0 10.0 0.00 0.00 0.00 79 1016.9
20190323234249 68 151 4.0 10.0 0.00 0.00 0.00 79 1016.8
20190323234141 68 143 4.0 10.0 0.00 0.00 0.00 79 1016.8
20190323234055 68 161 3.0 9.0 0.00 0.00 0.00 79 1016.8
20190323233943 68 165 4.0 9.0 0.00 0.00 0.00 79 1016.8
20190323233856 68 203 3.0 10.0 0.00 0.00 0.00 79 1016.8
20190323233753 68 168 3.0 10.0 0.00 0.00 0.00 79 1016.8
20190323233648 68 186 3.0 10.0 0.00 0.00 0.00 79 1016.8
20190323233539 68 129 3.0 10.0 0.00 0.00 0.00 79 1016.9
20190323233447 68 154 3.0 10.0 0.00 0.00 0.00 79 1016.9
20190323233339 68 132 3.0 10.0 0.00 0.00 0.00 79 1016.9
20190323233251 68 170 5.0 10.0 0.00 0.00 0.00 78 1016.9
20190323233143 68 160 5.0 11.0 0.00 0.00 0.00 78 1017.0
20190323233056 68 122 4.0 11.0 0.00 0.00 0.00 78 1017.0
20190323232949 68 282 3.0 11.0 0.00 0.00 0.00 78 1016.9
20190323232843 68 150 3.0 11.0 0.00 0.00 0.00 78 1016.9
20190323232755 68 191 3.0 11.0 0.00 0.00 0.00 78 1016.9
20190323232649 68 148 3.0 11.0 0.00 0.00 0.00 78 1016.9
20190323232602 68 172 4.0 11.0 0.00 0.00 0.00 78 1016.9
20190323232515 68 138 5.0 11.0 0.00 0.00 0.00 78 1016.9
20190323232424 68 98 4.0 11.0 0.00 0.00 0.00 78 1016.9
20190323232252 68 151 3.0 10.0 0.00 0.00 0.00 78 1016.9
20190323232146 68 143 3.0 10.0 0.00 0.00 0.00 78 1016.8
20190323232040 68 146 3.0 10.0 0.00 0.00 0.00 78 1016.8
20190323231949 68 174 4.0 10.0 0.00 0.00 0.00 78 1016.8
20190323231843 68 153 5.0 10.0 0.00 0.00 0.00 78 1016.8
20190323231755 68 135 4.0 10.0 0.00 0.00 0.00 78 1016.8
20190323231648 68 150 4.0 9.0 0.00 0.00 0.00 78 1016.8
20190323231541 68 125 4.0 9.0 0.00 0.00 0.00 77 1016.7
20190323231449 68 158 3.0 9.0 0.00 0.00 0.00 78 1016.7
20190323231342 68 151 3.0 9.0 0.00 0.00 0.00 78 1016.6
20190323231238 68 142 3.0 9.0 0.00 0.00 0.00 78 1016.7
20190323231151 68 141 3.0 9.0 0.00 0.00 0.00 78 1016.7
20190323231044 68 117 4.0 9.0 0.00 0.00 0.00 78 1016.7
20190323230951 68 175 4.0 9.0 0.00 0.00 0.00 78 1016.6
20190323230845 68 146 4.0 9.0 0.00 0.00 0.00 79 1016.6
20190323230739 68 188 3.0 7.0 0.00 0.00 0.00 79 1016.6
20190323230653 68 160 3.0 7.0 0.00 0.00 0.00 79 1016.6
20190323230543 68 173 3.0 7.0 0.00 0.00 0.00 79 1016.6
20190323230451 68 188 2.0 7.0 0.00 0.00 0.00 79 1016.6
20190323230348 68 129 2.0 7.0 0.00 0.00 0.00 79 1016.6
20190323230241 68 143 3.0 7.0 0.00 0.00 0.00 79 1016.6
20190323230155 68 242 3.0 7.0 0.00 0.00 0.00 79 1016.6
20190323230048 68 139 3.0 7.0 0.00 0.00 0.00 80 1016.6
20190323230006 68 145 3.0 7.0 0.00 0.00 0.00 80 1016.6
20190323225838 68 146 2.0 6.0 0.00 0.00 0.00 80 1016.6
20190323225751 68 141 2.0 6.0 0.00 0.00 0.00 81 1016.6
20190323225644 68 158 2.0 6.0 0.00 0.00 0.00 80 1016.6
20190323225541 68 169 2.0 6.0 0.00 0.00 0.00 81 1016.6
20190323225448 68 153 2.0 5.0 0.00 0.00 0.00 81 1016.6
20190323225341 68 174 2.0 5.0 0.00 0.00 0.00 81 1016.6
20190323225254 68 147 2.0 4.0 0.00 0.00 0.00 81 1016.6
20190323225149 68 137 2.0 4.0 0.00 0.00 0.00 82 1016.6
20190323225039 68 167 2.0 5.0 0.00 0.00 0.00 82 1016.5
20190323224946 68 155 1.0 5.0 0.00 0.00 0.00 82 1016.5
20190323224839 68 141 1.0 5.0 0.00 0.00 0.00 82 1016.5
20190323224756 68 143 2.0 5.0 0.00 0.00 0.00 82 1016.5
20190323224650 68 202 2.0 5.0 0.00 0.00 0.00 82 1016.5
20190323224544 68 140 2.0 5.0 0.00 0.00 0.00 82 1016.5
20190323224451 68 156 2.0 5.0 0.00 0.00 0.00 82 1016.5
20190323224344 67 155 2.0 6.0 0.00 0.00 0.00 82 1016.5
20190323224256 67 155 2.0 6.0 0.00 0.00 0.00 83 1016.5
20190323224148 67 148 2.0 6.0 0.00 0.00 0.00 82 1016.5
20190323224040 67 154 3.0 6.0 0.00 0.00 0.00 82 1016.5
20190323223951 67 195 2.0 6.0 0.00 0.00 0.00 83 1016.5
20190323223844 67 139 3.0 6.0 0.00 0.00 0.00 83 1016.5
20190323223757 67 197 3.0 6.0 0.00 0.00 0.00 83 1016.5
20190323223652 67 136 3.0 6.0 0.00 0.00 0.00 82 1016.5
20190323223543 67 146 3.0 6.0 0.00 0.00 0.00 83 1016.6
20190323223451 67 139 3.0 5.0 0.00 0.00 0.00 83 1016.6
20190323223344 67 127 2.0 5.0 0.00 0.00 0.00 83 1016.5
20190323223256 67 155 3.0 5.0 0.00 0.00 0.00 83 1016.6
20190323223153 67 152 3.0 5.0 0.00 0.00 0.00 83 1016.6
20190323223045 67 176 2.0 8.0 0.00 0.00 0.00 83 1016.5
20190323222953 67 160 2.0 8.0 0.00 0.00 0.00 83 1016.5
20190323222846 67 143 3.0 8.0 0.00 0.00 0.00 83 1016.6
20190323222758 67 186 3.0 8.0 0.00 0.00 0.00 83 1016.6
20190323222648 67 141 2.0 8.0 0.00 0.00 0.00 83 1016.6
20190323222541 67 145 2.0 8.0 0.00 0.00 0.00 83 1016.6
20190323222449 67 172 2.0 8.0 0.00 0.00 0.00 82 1016.6
20190323222345 67 162 3.0 8.0 0.00 0.00 0.00 82 1016.6
20190323222257 68 162 3.0 8.0 0.00 0.00 0.00 82 1016.7
20190323222152 68 146 3.0 8.0 0.00 0.00 0.00 82 1016.7
20190323222043 68 150 3.0 8.0 0.00 0.00 0.00 81 1016.8
20190323221952 68 249 2.0 9.0 0.00 0.00 0.00 81 1016.8
20190323221844 68 137 2.0 13.0 0.00 0.00 0.00 81 1016.8
20190323221756 68 157 3.0 13.0 0.00 0.00 0.00 80 1016.8
20190323221649 68 153 3.0 13.0 0.00 0.00 0.00 80 1016.9
20190323221545 68 144 4.0 13.0 0.00 0.00 0.00 79 1016.8
20190323221453 68 136 4.0 13.0 0.00 0.00 0.00 79 1016.8
20190323221346 69 169 4.0 13.0 0.00 0.00 0.00 78 1016.9
20190323221238 69 138 3.0 13.0 0.00 0.00 0.00 78 1016.9
20190323221150 69 198 5.0 13.0 0.00 0.00 0.00 78 1016.9
20190323221044 69 134 5.0 13.0 0.00 0.00 0.00 77 1016.8
20190323220951 69 210 4.0 8.0 0.00 0.00 0.00 76 1016.8
20190323220844 69 152 4.0 10.0 0.00 0.00 0.00 76 1016.8
20190323220741 69 162 4.0 10.0 0.00 0.00 0.00 76 1016.8
20190323220657 69 131 3.0 10.0 0.00 0.00 0.00 76 1016.8
20190323220548 69 159 3.0 10.0 0.00 0.00 0.00 76 1016.8
20190323220456 69 125 3.0 10.0 0.00 0.00 0.00 76 1016.8
20190323220348 69 142 3.0 10.0 0.00 0.00 0.00 76 1016.8
20190323220240 69 162 4.0 10.0 0.00 0.00 0.00 75 1016.7
20190323220154 69 167 4.0 10.0 0.00 0.00 0.00 75 1016.7
20190323220046 70 122 3.0 9.0 0.00 0.00 0.00 75 1016.7
20190323220005 70 200 3.0 7.0 0.00 0.00 0.00 75 1016.7
20190323215841 70 181 3.0 7.0 0.00 0.00 0.00 75 1016.7
20190323215755 70 150 3.0 8.0 0.00 0.00 0.00 75 1016.7
20190323215647 70 166 3.0 8.0 0.00 0.00 0.00 75 1016.7
20190323215539 70 152 3.0 8.0 0.00 0.00 0.00 74 1016.7
20190323215446 70 153 4.0 8.0 0.00 0.00 0.00 74 1016.7
20190323215338 70 160 4.0 8.0 0.00 0.00 0.00 74 1016.8
20190323215250 70 134 3.0 8.0 0.00 0.00 0.00 74 1016.8
20190323215146 70 153 2.0 8.0 0.00 0.00 0.00 74 1016.8
20190323215041 70 174 3.0 8.0 0.00 0.00 0.00 74 1016.8
20190323214948 70 115 3.0 8.0 0.00 0.00 0.00 74 1016.8
20190323214842 70 169 3.0 7.0 0.00 0.00 0.00 74 1016.8
20190323214754 70 124 3.0 7.0 0.00 0.00 0.00 73 1016.8
20190323214648 70 124 4.0 7.0 0.00 0.00 0.00 73 1016.9
20190323214540 70 131 3.0 10.0 0.00 0.00 0.00 73 1016.9
20190323214448 70 155 3.0 10.0 0.00 0.00 0.00 73 1016.9
20190323214341 70 161 3.0 10.0 0.00 0.00 0.00 73 1016.9
20190323214238 70 156 3.0 13.0 0.00 0.00 0.00 73 1016.9
20190323214150 70 157 3.0 13.0 0.00 0.00 0.00 73 1016.9
20190323214043 71 153 3.0 13.0 0.00 0.00 0.00 72 1016.9
20190323213950 71 143 4.0 13.0 0.00 0.00 0.00 72 1016.9
20190323213842 71 167 4.0 13.0 0.00 0.00 0.00 72 1016.9
20190323213755 71 147 4.0 13.0 0.00 0.00 0.00 72 1016.9
20190323213649 71 156 4.0 13.0 0.00 0.00 0.00 71 1016.9
20190323213541 71 179 5.0 13.0 0.00 0.00 0.00 72 1016.9
20190323213454 71 160 5.0 13.0 0.00 0.00 0.00 72 1016.9
20190323213346 71 178 4.0 10.0 0.00 0.00 0.00 72 1016.8
20190323213238 71 192 3.0 10.0 0.00 0.00 0.00 72 1016.9
20190323213151 71 151 3.0 10.0 0.00 0.00 0.00 72 1016.9
20190323213043 71 156 4.0 10.0 0.00 0.00 0.00 71 1016.9
20190323212950 71 172 4.0 10.0 0.00 0.00 0.00 71 1016.9
20190323212842 71 165 4.0 10.0 0.00 0.00 0.00 71 1016.9
20190323212755 71 181 5.0 10.0 0.00 0.00 0.00 71 1016.9
20190323212653 71 205 5.0 10.0 0.00 0.00 0.00 71 1016.9
20190323212545 71 174 4.0 10.0 0.00 0.00 0.00 71 1016.9
20190323212453 71 193 4.0 8.0 0.00 0.00 0.00 71 1016.8
20190323212346 71 155 4.0 8.0 0.00 0.00 0.00 71 1016.9
20190323212238 71 184 4.0 8.0 0.00 0.00 0.00 71 1016.8
20190323212152 71 230 3.0 11.0 0.00 0.00 0.00 71 1016.8
20190323212043 71 160 3.0 11.0 0.00 0.00 0.00 71 1016.9
20190323211950 71 138 4.0 11.0 0.00 0.00 0.00 70 1016.9
20190323211847 72 132 4.0 11.0 0.00 0.00 0.00 70 1016.9
20190323211739 72 146 3.0 11.0 0.00 0.00 0.00 70 1016.9
20190323211651 72 163 3.0 11.0 0.00 0.00 0.00 70 1016.9
20190323211544 72 130 4.0 11.0 0.00 0.00 0.00 70 1016.9
20190323211451 72 144 5.0 11.0 0.00 0.00 0.00 70 1016.9
20190323211343 72 145 5.0 11.0 0.00 0.00 0.00 70 1017.0
20190323211255 72 201 3.0 10.0 0.00 0.00 0.00 71 1017.0
20190323211147 72 194 2.0 15.0 0.00 0.00 0.00 71 1017.0
20190323211043 72 127 2.0 15.0 0.00 0.00 0.00 72 1017.0
20190323210950 72 141 3.0 15.0 0.00 0.00 0.00 72 1017.0
20190323210843 71 214 3.0 15.0 0.00 0.00 0.00 72 1017.0
20190323210754 71 224 4.0 15.0 0.00 0.00 0.00 72 1017.0
20190323210650 71 151 5.0 15.0 0.00 0.00 0.00 71 1017.0
20190323210538 71 175 5.0 15.0 0.00 0.00 0.00 71 1017.0
20190323210446 71 152 5.0 15.0 0.00 0.00 0.00 71 1017.0
20190323210338 71 140 5.0 11.0 0.00 0.00 0.00 71 1017.0
20190323210251 71 112 5.0 11.0 0.00 0.00 0.00 71 1017.0
20190323210148 71 148 5.0 11.0 0.00 0.00 0.00 71 1017.0
20190323210040 71 157 5.0 11.0 0.00 0.00 0.00 72 1016.9
20190323210000 71 181 5.0 11.0 0.00 0.00 0.00 72 1016.9
20190323205853 71 133 6.0 11.0 0.00 0.00 0.00 72 1017.0
20190323205747 71 165 5.0 11.0 0.00 0.00 0.00 72 1017.0
20190323205639 71 144 3.0 9.0 0.00 0.00 0.00 73 1017.0
20190323205552 71 141 3.0 9.0 0.00 0.00 0.00 73 1017.0
20190323205441 71 169 3.0 9.0 0.00 0.00 0.00 73 1017.0
20190323205338 71 186 3.0 9.0 0.00 0.00 0.00 73 1017.1
20190323205251 70 195 3.0 9.0 0.00 0.00 0.00 73 1017.1
20190323205147 70 132 4.0 9.0 0.00 0.00 0.00 73 1017.0
20190323205038 70 162 4.0 9.0 0.00 0.00 0.00 72 1017.2
20190323204946 70 172 4.0 8.0 0.00 0.00 0.00 72 1017.2
20190323204838 70 141 4.0 8.0 0.00 0.00 0.00 73 1017.1
20190323204752 70 98 4.0 8.0 0.00 0.00 0.00 73 1017.1
20190323204644 70 134 3.0 8.0 0.00 0.00 0.00 73 1017.2
20190323204540 70 158 2.0 10.0 0.00 0.00 0.00 73 1017.2
20190323204448 70 125 3.0 10.0 0.00 0.00 0.00 73 1017.2
20190323204341 70 147 3.0 10.0 0.00 0.00 0.00 73 1017.2
20190323204254 70 183 4.0 10.0 0.00 0.00 0.00 73 1017.2
20190323204148 70 233 4.0 10.0 0.00 0.00 0.00 73 1017.3
20190323204041 70 169 3.0 10.0 0.00 0.00 0.00 73 1017.3
20190323203948 70 147 3.0 10.0 0.00 0.00 0.00 73 1017.3
20190323203841 70 141 4.0 10.0 0.00 0.00 0.00 74 1017.4
20190323203737 70 298 3.0 10.0 0.00 0.00 0.00 74 1017.4
20190323203653 70 149 3.0 7.0 0.00 0.00 0.00 75 1017.4
20190323203545 70 163 3.0 7.0 0.00 0.00 0.00 75 1017.4
20190323203452 70 163 4.0 7.0 0.00 0.00 0.00 75 1017.4
20190323203345 70 140 4.0 7.0 0.00 0.00 0.00 75 1017.5
20190323203257 69 171 3.0 7.0 0.00 0.00 0.00 76 1017.4
20190323203149 69 167 2.0 8.0 0.00 0.00 0.00 76 1017.5
20190323203041 69 184 3.0 8.0 0.00 0.00 0.00 75 1017.5
20190323202953 69 141 3.0 8.0 0.00 0.00 0.00 76 1017.5
20190323202846 69 159 2.0 8.0 0.00 0.00 0.00 76 1017.5
20190323202739 69 175 3.0 8.0 0.00 0.00 0.00 76 1017.6
20190323202652 69 156 3.0 8.0 0.00 0.00 0.00 76 1017.6
20190323202544 69 127 4.0 9.0 0.00 0.00 0.00 76 1017.6
20190323202451 69 136 4.0 9.0 0.00 0.00 0.00 76 1017.6
20190323202343 69 144 3.0 9.0 0.00 0.00 0.00 76 1017.6
20190323202254 69 220 3.0 9.0 0.00 0.00 0.00 76 1017.6
20190323202154 69 155 2.0 9.0 0.00 0.00 0.00 76 1017.6
20190323202045 69 127 1.0 9.0 0.00 0.00 0.00 76 1017.6
20190323201953 69 162 2.0 9.0 0.00 0.00 0.00 76 1017.6
20190323201846 69 160 4.0 9.0 0.00 0.00 0.00 75 1017.7
20190323201738 69 126 4.0 9.0 0.00 0.00 0.00 75 1017.6
20190323201651 69 141 3.0 9.0 0.00 0.00 0.00 76 1017.6
20190323201544 69 98 3.0 9.0 0.00 0.00 0.00 75 1017.7
20190323201454 69 144 2.0 9.0 0.00 0.00 0.00 75 1017.7
20190323201349 69 185 3.0 9.0 0.00 0.00 0.00 75 1017.7
20190323201241 69 169 5.0 9.0 0.00 0.00 0.00 75 1017.8
20190323201153 69 141 6.0 9.0 0.00 0.00 0.00 75 1017.8
20190323201046 69 174 4.0 9.0 0.00 0.00 0.00 75 1017.7
20190323200954 69 155 3.0 8.0 0.00 0.00 0.00 75 1017.7
20190323200847 69 142 4.0 8.0 0.00 0.00 0.00 75 1017.8
20190323200739 69 121 3.0 8.0 0.00 0.00 0.00 76 1017.8
20190323200654 69 152 2.0 8.0 0.00 0.00 0.00 76 1017.8
20190323200550 69 120 3.0 8.0 0.00 0.00 0.00 75 1017.7
20190323200438 69 154 2.0 8.0 0.00 0.00 0.00 75 1017.7
20190323200350 69 142 3.0 8.0 0.00 0.00 0.00 74 1017.7
20190323200243 69 162 4.0 8.0 0.00 0.00 0.00 74 1017.8
20190323200156 70 108 4.0 8.0 0.00 0.00 0.00 74 1017.8
20190323200049 70 155 4.0 8.0 0.00 0.00 0.00 74 1017.8
20190323200008 70 139 4.0 8.0 0.00 0.00 0.00 74 1017.9
20190323195841 70 207 3.0 8.0 0.00 0.00 0.00 75 1017.9
20190323195738 70 186 4.0 8.0 0.00 0.00 0.00 74 1017.7
20190323195650 70 146 4.0 8.0 0.00 0.00 0.00 74 1017.7
20190323195543 69 143 3.0 6.0 0.00 0.00 0.00 75 1017.8
20190323195451 69 153 3.0 6.0 0.00 0.00 0.00 75 1017.8
20190323195344 69 154 3.0 6.0 0.00 0.00 0.00 74 1017.8
20190323195257 69 158 2.0 6.0 0.00 0.00 0.00 74 1017.9
20190323195152 69 175 3.0 6.0 0.00 0.00 0.00 74 1017.9
20190323195044 69 157 3.0 6.0 0.00 0.00 0.00 75 1017.8
20190323194951 69 136 2.0 6.0 0.00 0.00 0.00 75 1017.9
20190323194847 69 122 2.0 6.0 0.00 0.00 0.00 75 1017.9
20190323194740 69 162 3.0 9.0 0.00 0.00 0.00 74 1017.9
20190323194653 69 160 3.0 9.0 0.00 0.00 0.00 74 1017.9
20190323194546 69 150 3.0 9.0 0.00 0.00 0.00 75 1017.9
20190323194454 69 169 3.0 9.0 0.00 0.00 0.00 75 1017.9
20190323194348 69 198 3.0 9.0 0.00 0.00 0.00 75 1017.9
20190323194241 69 155 3.0 9.0 0.00 0.00 0.00 75 1017.9
20190323194153 69 132 4.0 9.0 0.00 0.00 0.00 75 1017.9
20190323194049 69 152 5.0 9.0 0.00 0.00 0.00 75 1017.9
20190323193957 69 163 4.0 9.0 0.00 0.00 0.00 75 1017.9
20190323193849 69 171 3.0 8.0 0.00 0.00 0.00 75 1017.9
20190323193740 69 154 3.0 8.0 0.00 0.00 0.00 75 1017.9
20190323193655 69 150 2.0 7.0 0.00 0.00 0.00 75 1017.9
20190323193547 69 143 3.0 8.0 0.00 0.00 0.00 75 1017.9
20190323193455 69 177 3.0 8.0 0.00 0.00 0.00 75 1017.9
20190323193347 69 181 3.0 8.0 0.00 0.00 0.00 75 1017.9
20190323193243 69 186 2.0 8.0 0.00 0.00 0.00 75 1017.9
20190323193156 69 143 2.0 8.0 0.00 0.00 0.00 75 1017.9
20190323193051 69 146 2.0 8.0 0.00 0.00 0.00 75 1017.9
20190323192938 69 156 3.0 8.0 0.00 0.00 0.00 75 1017.9
20190323192851 69 135 4.0 8.0 0.00 0.00 0.00 75 1017.9